GEFSCGP_850_meantemp_000.txt.gz
Temperature
24 25 26 27 27 27 27 26 27 28 28 27 28 28 28 27 26 27 26 23 22 19 19 18 16 16 16 16 17 17 19 18 16 16 16 15 16 15 15 15 15 14 14 14
24 24 27 27 26 26 25 25 26 27 27 27 27 27 28 27 26 26 26 23 20 19 17 17 16 16 16 16 17 18 18 17 16 15 15 15 14 14 14 14 14 13 13 13
24 26 26 25 25 24 25 25 26 26 27 26 26 26 27 27 25 25 24 24 21 18 17 16 16 15 15 15 16 17 16 16 15 15 15 15 15 14 13 13 13 13 12 12
25 26 25 25 25 25 25 26 25 25 25 26 26 24 27 27 26 25 24 23 22 18 16 16 15 15 14 14 16 16 16 15 15 15 15 14 13 13 13 12 12 11 11 10
25 26 25 24 25 25 26 26 25 25 25 25 25 24 27 27 27 27 25 23 22 20 16 15 14 14 14 14 14 15 15 14 14 14 13 13 13 12 12 11 10 9 8 7
26 26 26 26 26 26 26 25 25 25 25 23 24 25 26 28 27 28 27 23 21 19 16 14 13 13 13 13 13 13 14 14 13 13 13 13 13 12 11 10 9 9 8 7
24 25 26 26 26 25 25 24 24 24 24 24 26 26 26 28 28 27 26 22 20 17 14 12 12 12 13 12 13 13 14 13 13 13 13 13 12 11 10 10 8 8 8 7
24 23 26 25 25 25 25 24 23 23 24 25 25 25 27 27 25 23 24 21 17 14 12 11 12 12 12 12 12 12 13 12 11 12 12 12 11 11 9 10 8 7 7 6
26 25 26 26 26 26 23 25 25 24 24 23 24 26 26 26 23 22 22 18 13 11 11 11 11 12 11 11 11 11 11 11 11 11 12 11 11 10 9 7 6 6 6 6
24 23 25 26 26 26 24 26 24 23 21 21 24 25 26 25 24 23 21 15 12 11 10 10 10 10 10 11 11 11 11 11 11 11 11 11 10 7 6 5 5 6 5 5
24 23 24 25 24 25 25 24 24 24 25 23 22 25 24 25 23 24 21 14 11 11 10 10 10 9 10 10 10 10 11 12 12 11 10 8 7 6 5 5 6 5 5 5
22 22 23 25 25 25 25 25 25 24 23 24 23 24 22 21 21 22 20 13 11 11 11 10 9 9 10 11 11 10 9 10 11 9 8 7 7 5 5 5 5 5 5 5
20 22 22 23 23 24 24 24 24 23 23 24 23 24 21 20 21 21 18 12 11 10 9 9 9 10 10 10 10 9 10 10 9 8 7 6 5 5 5 5 5 5 5 5
18 21 21 21 22 22 22 22 23 23 23 23 24 24 23 20 20 20 17 12 11 9 8 9 9 10 10 9 9 9 9 9 8 7 6 5 5 5 5 5 5 5 5 5
20 21 21 21 21 21 21 21 22 22 23 22 23 24 24 23 20 19 16 12 11 9 8 8 8 8 8 8 8 9 9 9 8 6 6 6 5 5 5 5 5 5 5 5
18 20 19 20 21 20 20 21 21 21 22 22 22 23 23 21 20 18 15 12 11 9 8 8 8 7 8 8 9 8 8 6 6 6 6 6 5 5 5 5 5 5 4 4
18 18 18 19 20 19 19 20 21 21 22 22 22 21 20 20 19 17 15 12 11 9 8 8 7 6 6 6 6 7 7 6 6 6 6 6 6 6 5 5 5 4 4 3
16 16 17 18 17 16 18 18 18 18 19 18 19 19 18 18 17 14 13 12 10 8 7 6 5 5 6 5 6 6 6 5 6 6 6 6 6 6 5 4 4 3 3 2
15 15 17 16 16 17 19 16 17 16 17 16 15 16 15 13 11 11 10 10 9 8 7 6 5 5 4 5 5 4 5 6 6 6 6 6 5 5 4 4 3 2 2 2
14 14 15 15 14 15 16 15 15 15 16 15 14 14 13 12 13 11 8 8 8 7 6 5 5 4 4 4 4 5 5 6 6 6 5 5 4 4 3 2 2 1 1 1
14 14 14 14 13 16 15 14 15 15 14 13 13 13 12 10 9 8 7 7 7 6 5 5 4 4 3 4 4 4 5 5 5 5 4 4 3 3 2 2 1 1 0 0
15 15 14 15 13 11 13 14 14 14 12 12 12 12 9 8 7 6 6 6 6 5 5 4 4 3 3 4 4 5 5 4 4 4 3 3 2 2 2 1 1 1 0 -0
11 13 14 14 14 14 13 13 12 12 12 12 11 11 8 6 6 5 5 5 5 5 4 4 4 4 5 5 5 5 5 4 4 3 3 2 2 1 1 1 1 1 -0 -1
13 12 13 13 13 14 13 12 12 11 11 11 10 8 7 5 4 4 5 4 4 4 5 5 5 6 5 5 5 5 4 4 3 3 2 2 1 1 1 1 1 -0 -1 -1
12 11 11 12 13 13 13 12 11 9 9 8 7 7 5 4 5 5 5 5 5 6 6 6 6 6 6 5 5 5 4 3 3 3 2 2 2 1 1 -0 -0 -1 -1 -1
12 12 11 12 12 11 11 9 8 7 7 5 5 5 5 6 6 6 6 6 6 6 6 6 6 6 6 5 5 4 4 3 3 3 3 2 2 1 0 -0 -0 -0 -1 -1

GEFSCGP_850_meantemp_006.txt.gz
Temperature
26 26 26 27 28 28 29 29 30 31 33 32 32 31 32 32 32 31 31 31 30 29 27 24 22 20 19 19 19 19 19 19 18 18 17 17 17 16 16 16 16 16 16 15
26 26 28 29 30 29 29 29 29 30 32 31 31 31 31 32 31 31 31 31 30 29 26 22 21 19 18 18 18 18 19 18 18 17 17 16 16 15 15 15 15 15 14 14
26 28 29 29 29 29 29 29 29 29 30 31 30 30 30 31 31 31 31 30 30 29 26 22 20 19 19 18 17 18 18 18 17 17 16 16 15 15 15 14 14 14 14 14
27 28 29 29 28 29 28 29 29 29 28 28 29 28 29 30 30 31 31 31 30 29 27 23 20 19 19 18 17 17 17 17 16 16 16 16 15 14 14 13 13 13 13 13
27 29 29 28 28 29 28 29 29 28 28 27 28 27 28 30 30 31 31 31 30 29 27 23 20 18 18 18 17 17 16 16 16 15 15 15 14 13 13 12 12 12 11 11
28 30 30 29 30 29 29 28 28 28 27 26 27 27 27 29 30 31 31 31 30 29 25 21 18 17 17 17 16 16 16 15 15 14 14 14 13 13 12 12 12 11 11 10
27 28 30 30 28 29 28 26 25 25 25 25 27 27 28 30 31 31 31 29 28 26 21 18 17 16 16 16 15 15 14 14 14 13 13 13 13 13 12 12 11 11 10 9
26 27 28 29 28 27 27 26 24 24 25 26 28 28 29 31 31 30 28 24 22 20 17 16 15 15 15 15 14 14 13 13 12 12 12 13 12 12 11 11 10 10 10 9
27 27 30 30 29 28 27 27 27 26 25 25 26 28 29 30 30 30 27 21 18 16 15 15 14 14 14 14 14 13 12 12 11 12 12 12 11 11 11 11 10 9 9 8
27 26 28 30 30 29 28 28 27 26 24 23 25 26 28 29 29 29 24 18 15 14 14 13 13 13 13 13 12 12 11 11 11 11 11 11 11 11 10 9 9 8 7 7
26 25 26 28 27 27 27 27 26 26 26 24 24 26 28 28 28 25 21 17 15 14 13 12 12 12 12 12 12 11 11 11 11 10 10 10 10 9 8 7 7 7 7 6
25 25 24 26 28 29 28 27 27 25 24 25 24 25 28 27 27 25 22 17 15 13 12 12 11 11 11 11 11 11 10 10 10 10 9 9 8 8 7 7 7 7 6 6
23 23 22 23 25 27 27 27 27 26 25 25 24 25 26 25 22 19 17 15 14 12 11 11 10 11 11 11 10 10 10 9 9 8 8 8 7 7 7 7 7 6 6 6
21 22 22 22 24 24 25 25 26 26 25 24 25 25 24 22 20 16 15 14 12 11 10 10 10 11 11 11 10 9 9 9 8 8 7 7 7 7 7 7 6 6 6 6
22 21 22 23 25 25 24 24 23 23 24 24 24 24 23 21 19 16 14 13 11 10 9 9 10 10 10 10 9 9 8 8 8 8 7 7 7 7 7 6 6 6 6 6
21 20 21 21 23 24 24 24 24 24 24 24 24 23 21 19 17 15 14 12 11 10 9 9 9 9 9 9 8 8 7 7 7 7 7 7 7 7 6 6 6 6 5 5
20 19 19 19 22 22 22 23 24 24 24 23 22 20 19 18 16 14 14 13 11 10 9 8 8 8 8 7 7 6 6 6 6 6 6 6 6 6 6 6 6 5 5 4
18 18 18 19 19 18 21 23 22 22 21 21 20 19 18 16 14 12 12 12 10 9 8 8 7 7 7 6 6 5 5 5 5 5 5 5 6 6 6 5 5 4 4 3
19 18 17 17 18 19 21 21 20 20 19 18 18 18 17 16 15 10 10 10 9 8 7 7 6 6 6 5 5 5 5 5 5 5 5 5 6 5 5 4 4 3 3 2
18 18 17 17 16 17 18 18 19 19 17 16 16 16 16 16 16 10 8 8 8 7 7 6 5 5 5 5 5 5 5 5 5 5 5 5 5 5 4 4 3 2 2 2
16 16 16 16 16 18 16 18 18 17 15 15 15 15 15 14 11 8 7 6 6 6 5 5 5 5 5 5 5 5 5 5 5 5 5 5 4 4 4 3 2 2 2 1
16 15 15 15 15 15 16 17 16 15 15 15 14 14 12 10 8 7 6 5 5 5 4 4 4 4 5 5 5 5 5 6 5 5 5 4 4 3 3 2 2 2 1 1
16 16 15 14 13 14 15 15 15 14 14 13 13 12 10 8 7 6 5 5 4 4 4 4 5 5 5 5 5 5 5 5 5 5 4 4 3 2 2 2 1 1 1 0
15 16 15 15 16 16 15 14 13 13 12 12 12 10 9 7 6 5 5 4 4 5 5 5 5 5 6 6 6 6 5 5 5 4 4 4 3 2 2 1 1 1 0 -0
14 14 14 14 15 15 14 12 11 11 11 10 9 8 7 6 5 5 5 5 5 6 6 6 6 6 6 6 6 5 5 5 5 5 4 4 3 2 2 1 1 0 0 -0
14 13 13 13 13 12 11 10 10 9 8 8 7 6 6 6 5 5 6 6 6 6 6 7 7 6 6 6 6 5 5 5 5 5 4 4 3 2 2 1 1 0 0 -0

GEFSCGP_850_meantemp_012.txt.gz
Temperature
22 18 18 19 19 19 21 21 20 22 23 24 23 23 24 27 27 25 24 23 23 23 24 24 23 23 22 22 21 21 20 20 19 19 19 18 18 17 17 17 16 16 16 16
20 18 19 20 21 21 21 20 20 21 23 24 23 23 23 24 25 26 26 24 24 23 23 23 23 22 22 21 21 21 21 20 19 19 19 18 18 17 17 16 15 15 15 15
18 19 21 21 21 21 21 20 21 21 22 23 24 23 22 23 26 27 28 27 25 24 23 22 22 22 21 21 21 21 20 19 19 18 18 18 17 17 16 15 15 14 14 14
19 21 22 22 21 21 20 22 22 22 22 20 23 20 21 22 23 24 26 27 25 24 23 22 22 21 21 21 20 20 20 19 18 18 18 17 17 16 15 15 14 13 13 13
19 21 21 21 22 22 22 22 23 24 22 20 20 20 19 20 23 23 23 27 26 24 22 21 21 21 20 19 19 19 19 18 18 17 17 16 16 15 14 13 13 13 12 12
21 22 22 22 24 23 23 23 21 18 18 19 20 21 19 20 22 23 22 25 26 23 21 19 18 18 18 18 18 18 18 17 17 16 16 16 15 14 13 13 12 12 12 12
21 22 23 23 23 23 23 19 18 19 17 18 19 20 19 21 21 21 20 21 23 22 18 17 17 17 17 17 17 18 17 17 16 16 15 15 14 13 13 13 12 12 12 11
19 20 22 23 23 22 20 19 18 18 18 18 20 20 19 20 19 19 18 19 19 18 17 16 17 17 17 17 17 17 17 16 15 15 14 14 13 13 12 12 12 12 11 10
19 20 23 24 24 22 21 19 19 17 18 18 18 20 20 19 17 17 16 16 16 16 16 16 16 16 16 16 16 16 15 15 14 14 13 13 12 12 12 11 11 10 9 9
20 20 22 24 24 23 22 20 16 16 17 17 19 20 19 18 17 16 16 15 15 15 15 15 15 15 15 15 15 14 14 14 13 12 12 12 11 11 11 10 10 9 8 8
19 19 21 23 22 22 22 21 19 16 16 17 17 17 18 17 16 15 14 14 14 14 15 15 15 15 15 14 14 13 13 12 11 11 11 11 10 10 10 9 9 8 8 7
17 17 19 21 22 23 22 21 19 18 17 16 16 16 16 15 14 14 13 13 13 14 14 14 14 13 13 13 12 12 11 11 11 10 10 10 9 9 8 8 8 7 7 6
17 16 17 18 19 20 21 20 19 17 16 15 16 15 15 14 14 13 12 12 12 12 12 12 12 12 11 11 11 11 10 10 10 10 10 9 8 8 7 7 7 6 6 6
17 15 16 17 18 19 20 20 19 17 15 15 16 15 14 14 13 12 11 11 11 11 11 10 10 10 10 10 10 10 9 9 9 9 8 8 7 7 6 6 6 6 5 5
15 15 16 17 18 19 20 20 20 18 16 15 15 14 14 13 13 12 11 11 10 10 10 10 10 10 10 9 9 9 9 8 8 8 7 7 6 6 6 6 5 5 5 5
13 14 15 15 17 18 18 19 19 18 17 15 14 13 13 12 12 11 11 11 10 10 10 10 10 10 9 9 9 8 8 7 7 7 6 6 6 6 5 5 5 4 4 4
13 13 13 13 15 17 16 16 16 15 15 15 13 13 12 12 12 11 11 11 10 9 9 9 9 9 9 8 8 7 7 6 6 6 6 5 5 5 4 4 4 4 4 4
13 13 11 13 14 15 15 15 15 14 13 13 13 12 11 10 9 10 10 10 10 9 9 9 8 8 8 7 7 6 6 6 5 5 5 5 4 4 4 4 4 4 3 3
12 13 12 11 13 14 15 15 15 13 12 13 12 11 9 10 10 9 9 9 9 9 9 8 7 7 6 6 5 5 5 5 5 4 4 4 4 4 4 4 3 3 2 2
11 11 11 11 13 13 13 14 15 13 11 13 12 11 10 10 9 8 8 8 8 8 7 7 6 5 5 5 5 5 5 4 4 4 4 4 4 4 3 3 2 2 2 1
11 10 11 10 11 12 12 14 14 12 10 12 12 12 10 8 8 7 7 7 7 6 6 5 5 5 5 5 4 4 4 4 4 4 4 4 4 3 3 2 2 1 1 1
10 10 10 10 10 11 12 12 11 10 12 12 12 11 10 8 7 6 6 6 6 5 5 4 4 4 4 4 5 5 5 4 4 4 4 4 3 3 2 2 1 1 1 0
10 10 9 10 9 11 12 12 12 12 12 12 11 11 10 7 6 6 6 5 5 5 4 4 4 4 5 5 5 5 5 5 4 4 4 4 3 2 2 1 1 1 0 0
10 11 10 10 10 10 11 11 12 12 12 11 11 10 9 8 6 5 5 5 4 4 4 4 5 5 5 5 5 5 5 5 4 4 4 3 3 2 1 1 1 1 0 -0
10 10 9 9 9 10 10 10 11 11 11 10 10 9 8 7 6 5 5 5 5 5 5 5 5 5 5 5 5 5 5 4 4 4 4 3 2 2 1 1 1 0 0 -0
7 7 8 7 8 8 9 9 10 10 9 9 8 7 6 6 5 5 5 5 5 5 5 5 5 5 5 5 5 5 4 4 4 4 3 3 2 2 2 1 1 0 -0 -1

GEFSCGP_850_meantemp_018.txt.gz
Temperature
16 14 14 15 16 18 19 20 20 19 20 21 21 20 20 22 21 21 22 22 22 22 24 23 23 23 23 22 22 22 21 20 20 19 19 18 17 17 17 17 16 16 16 16
15 15 16 17 17 18 19 19 19 19 19 21 20 20 20 20 21 22 22 23 22 23 22 22 23 23 23 22 22 21 21 20 20 19 19 18 17 17 17 16 16 16 16 16
16 17 17 17 18 18 18 19 19 19 18 19 20 19 19 20 21 22 22 23 23 23 23 23 23 23 22 22 22 21 20 20 19 19 18 18 17 16 16 15 15 15 15 15
16 17 18 18 18 18 18 18 19 19 19 17 19 18 19 19 18 19 20 21 22 23 23 23 23 23 22 22 21 20 20 19 19 19 18 18 17 16 15 14 14 14 14 13
17 17 18 18 18 18 18 19 19 19 18 17 17 17 17 17 19 18 18 18 19 21 22 22 22 22 22 21 20 19 19 18 18 18 18 17 17 15 14 14 13 13 13 13
18 18 18 18 19 19 19 19 17 14 15 16 17 16 17 16 17 17 17 16 17 19 20 21 20 20 20 19 19 18 18 17 17 17 17 16 15 15 14 13 13 12 12 12
19 19 19 20 20 20 19 17 15 16 15 15 17 17 16 17 17 16 16 15 16 17 18 18 17 17 17 17 17 17 17 16 16 16 15 15 14 14 13 13 12 12 12 11
17 17 18 19 19 18 17 16 15 16 16 16 17 16 16 17 17 16 15 15 15 15 16 16 15 16 16 16 16 16 16 16 16 15 15 14 13 13 12 12 11 11 11 10
16 17 19 19 19 18 17 15 16 15 16 16 16 17 17 17 17 16 15 14 14 15 15 15 14 15 15 15 15 15 16 15 15 14 14 13 13 12 12 11 11 10 10 9
16 17 19 20 19 19 18 15 13 14 15 16 17 17 16 16 16 15 14 14 14 14 14 14 14 14 14 15 15 14 14 14 14 13 13 13 12 11 11 10 10 9 9 8
16 17 18 19 20 19 17 17 15 13 14 15 16 16 15 15 15 15 13 13 13 13 13 13 13 14 14 14 14 14 13 13 13 12 12 11 10 10 10 9 9 8 8 7
15 15 16 18 19 19 18 17 14 16 15 14 15 14 14 14 15 14 12 12 12 13 13 13 13 13 13 13 13 13 12 12 12 11 10 10 9 9 9 8 8 7 7 6
14 14 16 17 17 17 18 17 15 13 13 13 14 14 15 14 13 12 11 11 12 12 13 13 13 13 13 12 12 12 11 11 10 10 9 9 8 8 8 7 7 6 6 6
14 13 14 15 16 16 17 17 16 15 14 14 14 14 14 14 13 12 11 11 11 12 12 12 12 12 12 11 11 10 10 9 9 9 8 8 7 7 6 6 6 6 5 5
13 13 14 15 16 16 16 16 16 15 15 14 14 14 14 13 12 11 10 11 11 10 10 11 11 10 10 10 9 9 9 8 8 8 7 7 6 6 6 5 5 5 5 5
11 13 14 14 15 15 15 14 15 15 15 14 13 13 13 12 12 11 10 10 10 10 10 10 10 9 9 9 9 8 8 7 7 7 6 6 5 5 5 5 5 4 4 4
10 12 12 12 13 14 13 13 13 13 13 14 14 13 12 12 11 10 10 10 10 10 9 9 9 9 9 8 8 8 7 7 6 6 5 5 5 5 4 4 4 4 4 3
10 10 10 11 12 12 12 13 13 12 12 12 12 11 11 10 9 9 10 10 10 10 9 9 8 8 8 7 7 7 6 6 5 5 5 5 4 4 4 4 3 3 3 2
9 10 10 10 12 12 13 13 12 12 11 11 11 10 9 9 9 8 9 9 9 9 8 8 7 7 7 6 6 6 5 5 5 4 4 4 4 4 3 3 3 2 1 1
8 8 9 10 11 11 12 12 12 12 11 11 10 9 9 9 9 8 7 8 8 8 7 7 6 6 5 5 5 5 4 4 4 4 4 4 4 3 3 2 2 1 1 1
8 8 8 9 10 10 11 11 12 11 10 11 10 10 9 9 8 7 6 7 7 6 6 5 5 5 4 4 4 4 4 4 4 4 4 3 3 3 2 1 1 1 0 0
8 8 8 8 9 10 10 11 11 10 10 11 11 10 9 8 6 6 6 6 5 5 4 4 4 4 4 4 4 4 4 4 4 4 3 3 3 2 1 1 1 0 0 0
7 7 7 8 8 9 9 9 10 11 11 11 11 11 10 7 6 5 5 5 4 4 4 4 4 4 4 4 4 4 4 4 4 3 3 3 2 2 1 1 0 0 0 -0
7 7 7 8 8 9 9 10 10 11 11 11 11 10 9 8 6 5 5 4 4 4 4 4 4 4 4 4 4 4 4 4 4 3 3 2 2 2 1 1 1 0 -0 -1
7 7 7 7 8 8 9 9 9 10 10 10 10 9 8 7 6 5 4 4 4 4 4 4 4 4 4 4 4 4 4 4 4 3 3 2 2 2 1 1 1 0 -0 -1
5 6 6 6 7 6 7 8 8 9 9 9 8 8 7 6 5 5 4 4 4 4 4 4 4 4 4 4 4 4 4 4 3 3 3 2 2 2 2 1 1 1 0 -1

GEFSCGP_850_meantemp_024.txt.gz
Temperature
21 22 22 23 24 25 25 26 26 27 27 27 28 28 29 30 29 30 29 29 28 27 27 26 24 23 22 21 20 20 19 19 19 18 18 17 17 16 16 16 16 16 15 15
21 22 23 24 24 24 24 24 25 26 26 26 27 28 29 29 29 28 28 27 27 26 26 25 24 23 22 21 20 20 19 19 19 18 17 17 16 16 16 16 15 15 15 14
22 23 24 23 22 22 23 24 25 25 26 26 26 27 28 29 28 27 26 25 25 24 24 24 24 23 22 21 20 19 19 18 18 17 17 16 16 16 15 15 14 14 14 13
22 23 23 22 22 23 23 24 25 25 25 26 26 27 29 28 28 27 26 24 23 22 22 23 23 22 22 21 20 19 18 18 17 17 17 16 16 16 15 15 14 14 13 13
22 23 22 22 23 24 24 25 24 24 24 25 25 26 28 28 27 26 24 22 20 19 20 20 21 21 21 21 20 19 18 17 17 17 16 16 16 16 15 15 14 13 12 12
23 24 24 24 24 24 25 24 24 24 25 24 25 26 27 28 26 25 22 19 17 17 18 18 18 18 18 18 18 18 17 17 16 16 16 15 15 15 15 14 13 12 12 12
22 23 24 24 24 24 24 23 23 23 23 24 26 25 27 24 22 21 20 18 16 15 16 16 16 16 16 16 16 16 16 16 15 15 15 15 14 14 14 13 13 12 11 11
22 22 23 24 24 24 23 23 23 23 24 25 25 25 25 22 20 18 17 16 15 14 14 14 14 15 15 15 15 15 15 15 15 14 14 14 13 13 13 12 12 11 11 10
22 23 24 24 25 25 24 24 25 24 24 25 26 25 23 21 19 18 17 15 14 14 13 14 14 14 14 14 14 14 14 14 14 14 13 13 13 12 12 11 11 10 9 9
22 22 24 24 24 24 25 25 24 23 23 23 25 25 25 22 19 18 16 15 13 13 13 13 13 13 13 13 13 14 14 13 13 13 12 12 12 11 11 10 10 9 9 8
21 21 23 23 23 23 23 24 24 24 24 24 24 25 23 22 19 17 15 13 12 12 12 12 12 13 13 13 13 13 13 12 12 12 12 12 11 11 10 10 9 8 8 8
20 21 22 23 24 24 24 24 24 23 23 24 24 23 20 20 18 15 13 12 12 12 12 12 12 12 12 12 12 12 12 12 11 11 11 11 10 10 9 9 8 8 7 7
19 20 21 22 22 23 23 23 23 23 23 23 24 22 18 17 15 13 12 11 11 11 11 11 11 11 11 11 11 11 11 11 10 10 10 10 9 9 8 8 7 7 6 6
18 20 20 21 21 22 22 22 22 23 23 23 23 21 17 16 14 12 11 11 11 10 10 10 10 10 10 10 10 10 10 9 9 9 9 8 8 7 7 6 6 6 5 5
19 20 19 20 20 21 21 21 22 22 22 23 22 21 18 16 15 12 11 10 10 10 10 10 9 9 9 9 9 9 9 8 8 8 8 7 7 6 6 6 5 5 5 4
18 19 19 19 20 20 20 20 20 20 21 21 21 19 18 16 14 12 11 11 10 9 9 9 9 9 8 8 8 8 8 7 7 7 6 6 6 6 5 5 4 4 4 4
18 18 18 19 19 19 19 18 19 19 19 19 19 18 17 15 13 12 11 11 10 9 8 8 8 8 8 7 7 7 7 6 6 6 5 5 5 5 4 4 4 3 3 2
17 17 18 18 18 17 17 17 17 17 17 17 17 16 15 12 9 9 10 10 9 8 8 8 7 7 7 7 6 6 6 5 5 5 4 4 4 4 3 3 3 2 2 2
16 17 17 17 17 18 17 16 16 16 16 15 14 13 11 10 10 8 8 8 8 8 7 7 7 7 6 6 6 5 5 5 4 4 4 4 3 3 3 3 2 2 2 1
17 16 17 16 16 15 15 16 15 16 15 14 14 13 12 12 12 8 7 7 7 7 7 6 6 6 5 5 5 5 4 4 4 3 3 3 3 3 2 2 2 1 1 1
16 16 16 16 15 15 14 15 16 15 13 13 13 12 12 11 9 7 6 6 6 6 6 5 5 5 5 5 4 4 4 3 3 3 3 3 3 2 2 1 1 1 1 1
15 15 15 15 14 13 13 15 14 12 12 12 12 11 9 7 6 6 5 5 5 5 5 5 5 4 4 4 4 4 3 3 3 3 3 3 2 3 2 1 1 1 1 1
15 14 15 14 13 12 12 12 11 12 12 12 11 9 8 6 5 5 5 5 5 4 4 4 4 4 4 4 4 4 3 3 3 3 3 3 2 2 2 2 2 2 1 1
15 14 14 14 14 13 12 12 11 11 11 11 10 9 8 6 5 5 5 4 4 4 4 4 4 4 4 4 4 4 4 4 4 3 3 3 3 2 2 2 2 2 2 1
14 14 14 14 14 13 12 11 10 10 10 10 9 9 7 6 5 5 4 4 4 4 4 4 5 5 5 4 4 4 4 4 3 3 3 3 3 3 2 2 2 2 1 0
14 14 14 14 12 12 11 9 9 9 9 9 8 7 7 6 5 5 4 4 4 5 5 5 5 5 5 5 4 4 4 4 3 3 3 4 3 3 3 3 2 1 1 1

GEFSCGP_850_meantemp_030.txt.gz
Temperature
23 23 23 24 25 26 27 28 28 29 31 30 29 30 31 32 32 32 32 31 31 30 30 29 29 28 26 25 24 22 21 20 19 19 18 18 18 18 18 18 18 18 18 17
23 23 25 26 26 26 26 26 28 30 31 30 30 30 31 32 32 32 32 31 30 29 29 28 28 27 26 24 23 22 21 20 19 18 18 18 18 18 18 18 18 17 17 16
23 24 25 25 26 26 26 26 27 29 30 30 29 29 30 31 32 32 31 30 29 28 27 27 27 26 26 24 23 22 21 20 19 18 18 17 17 17 17 17 17 16 16 15
24 25 26 25 25 25 25 27 27 28 28 28 28 26 28 30 31 31 31 29 27 26 25 25 25 25 25 24 23 22 21 20 19 18 18 18 17 17 17 16 16 15 15 15
24 25 25 25 25 26 26 27 27 27 27 27 28 27 28 30 30 30 29 26 23 22 21 21 21 22 23 23 23 22 21 19 19 18 18 17 17 16 16 15 15 14 14 14
25 26 26 26 26 26 26 26 27 27 26 25 26 26 27 29 30 29 25 21 20 19 18 18 19 19 20 21 21 21 20 19 18 18 17 17 16 16 15 14 14 13 13 13
24 25 26 26 25 26 26 25 24 24 24 24 27 26 27 27 26 24 21 18 17 16 16 16 17 17 18 19 19 19 19 18 17 17 16 16 16 15 14 14 13 12 12 12
23 23 25 26 25 25 25 25 23 23 24 25 27 26 27 25 22 20 18 17 16 15 15 15 15 15 16 16 17 17 17 16 16 16 15 15 15 14 13 13 12 12 11 11
23 24 26 26 26 26 25 25 26 25 25 25 27 27 24 23 21 20 18 16 15 14 14 14 14 14 15 15 15 15 15 15 15 15 14 14 14 13 13 12 11 11 11 10
23 23 25 26 26 26 26 26 25 24 23 23 26 26 24 22 20 19 17 15 14 13 13 13 13 14 14 14 14 14 14 14 14 14 13 13 12 12 12 11 11 10 10 9
24 23 24 25 25 25 25 25 24 25 25 24 24 24 24 23 20 18 16 14 13 12 13 13 13 13 13 13 13 13 13 13 13 12 12 12 11 11 11 10 10 9 9 9
23 23 22 23 25 26 26 25 24 23 23 24 24 22 23 21 19 17 14 13 12 12 12 12 12 12 12 12 12 12 12 12 12 11 11 11 10 10 10 9 9 8 8 8
21 21 21 21 22 24 24 24 24 24 24 23 23 21 21 19 17 15 13 12 11 11 11 11 11 11 11 11 11 11 11 11 11 11 10 10 10 9 9 8 8 8 7 7
21 21 20 17 17 18 20 21 22 22 23 23 23 21 19 17 15 14 12 11 11 11 10 10 10 10 10 10 10 10 10 10 10 10 9 9 9 8 8 8 7 7 7 7
21 21 21 20 20 20 20 19 19 20 21 21 21 19 18 16 14 13 11 11 10 10 10 9 9 9 9 9 9 9 9 9 9 9 8 8 7 7 7 7 7 6 6 6
21 20 20 20 21 21 20 20 19 19 19 19 18 16 15 13 12 11 11 10 10 9 9 9 9 8 8 8 8 8 8 8 8 8 7 7 7 6 6 6 6 5 5 5
20 20 20 20 21 21 20 19 19 19 19 18 16 14 13 12 11 10 10 9 9 9 8 8 8 8 8 8 8 8 7 7 7 7 7 6 6 6 5 5 5 5 4 4
19 19 19 20 20 18 18 19 20 19 17 17 15 13 11 10 9 9 9 9 8 8 8 8 8 8 7 7 7 7 7 7 6 6 6 5 5 5 5 4 4 4 4 3
20 19 19 19 19 17 17 17 18 18 16 16 14 12 10 10 9 8 8 8 8 8 7 7 7 7 7 7 6 6 6 6 5 5 5 5 5 4 4 4 4 3 3 3
21 20 19 18 17 16 15 17 18 18 14 14 13 13 12 12 11 8 7 7 7 7 7 7 7 6 6 6 6 6 5 5 5 5 4 4 4 4 4 3 3 3 3 3
19 19 18 17 17 15 16 18 18 15 12 13 12 12 11 10 9 7 7 7 7 6 6 6 6 6 6 6 5 5 5 5 5 4 4 4 4 4 3 3 3 3 3 3
18 18 17 17 15 14 16 16 15 13 12 12 11 10 9 8 7 7 6 6 6 6 6 6 6 6 5 5 5 5 5 4 4 4 4 4 4 4 3 3 3 3 3 3
18 17 17 16 15 15 15 14 13 13 12 12 11 10 9 8 7 6 6 6 6 6 6 6 5 5 5 5 5 5 5 4 4 4 4 4 4 3 3 3 3 3 3 3
19 18 18 16 15 15 14 14 13 13 12 11 11 10 9 8 7 6 6 6 6 6 5 5 5 5 5 5 5 5 5 5 4 4 4 4 4 3 3 3 3 3 3 3
18 18 17 16 16 14 13 13 13 12 12 11 10 9 8 7 7 6 6 6 6 6 6 6 6 5 5 5 5 5 5 5 4 4 4 4 4 4 4 4 3 3 3 3
18 17 16 14 14 14 13 12 12 12 11 11 10 9 8 7 7 7 6 6 6 6 6 6 6 6 6 6 5 5 5 5 5 5 5 5 5 4 4 4 4 3 3 2

GEFSCGP_850_meantemp_036.txt.gz
Temperature
20 17 16 17 18 19 20 20 19 21 22 22 22 23 24 25 25 25 24 24 23 23 23 24 24 24 24 23 22 22 21 21 20 20 20 19 19 18 18 18 18 18 17 17
17 17 18 19 19 20 20 19 20 21 22 23 21 22 23 24 24 24 24 23 22 22 23 24 24 24 24 23 22 22 21 21 21 20 20 20 19 18 18 18 18 17 17 17
16 17 19 20 20 20 20 19 20 21 22 22 22 22 22 24 23 22 21 21 21 22 22 23 24 24 24 23 23 22 21 21 21 20 20 19 19 18 17 17 17 17 16 16
17 19 20 20 19 20 19 21 21 22 21 19 21 20 21 22 21 19 18 18 18 19 20 22 22 23 23 23 22 22 21 21 21 20 20 19 19 18 17 17 16 16 16 15
18 19 19 19 20 21 20 22 22 22 21 20 20 20 20 21 19 17 16 16 16 17 18 19 20 21 21 22 22 21 21 21 20 20 19 19 18 17 17 16 15 15 15 14
18 20 20 20 22 22 22 22 21 19 18 19 20 21 20 19 19 17 16 15 15 16 16 17 18 19 20 20 20 20 20 20 19 19 18 18 18 17 16 15 15 14 14 14
19 20 21 22 21 22 21 18 17 18 17 18 20 21 18 17 18 16 15 15 14 15 15 16 17 17 18 19 19 19 19 18 18 17 17 17 17 16 15 15 14 14 13 13
18 18 20 21 21 20 20 18 17 18 18 18 20 19 17 16 15 15 14 14 14 14 14 15 15 16 16 17 17 17 17 17 17 16 16 16 16 15 14 14 13 13 12 12
17 18 20 22 22 21 20 18 17 17 19 19 18 17 17 16 15 14 14 13 13 13 13 14 14 14 15 15 16 16 16 16 16 15 15 15 14 14 13 13 12 12 11 11
17 18 19 21 21 21 20 19 16 16 17 18 19 18 17 16 15 14 13 13 12 13 13 13 13 13 14 14 14 15 15 15 15 14 14 13 13 13 12 12 11 11 10 10
16 17 18 18 18 18 19 18 17 15 16 17 17 17 16 16 15 14 13 12 12 12 12 12 12 12 13 13 13 13 13 13 13 13 13 12 12 11 11 11 10 10 9 9
16 15 16 17 18 18 18 17 16 16 16 16 16 15 15 14 14 13 12 11 11 11 12 12 12 12 12 12 12 12 12 12 12 12 11 11 10 10 10 9 9 8 8 8
16 15 15 16 16 17 17 17 16 14 14 15 15 15 14 13 13 12 11 11 11 11 11 11 11 11 11 11 11 11 11 11 10 10 10 10 9 9 8 8 8 8 7 7
16 14 15 15 15 16 17 17 16 14 13 14 14 14 13 13 12 11 11 10 10 10 10 10 10 10 10 10 10 9 9 9 9 9 9 9 8 8 8 7 7 7 7 7
14 15 16 16 17 17 16 16 16 15 15 14 14 14 13 12 11 11 10 10 10 9 9 9 9 9 9 9 9 9 8 8 8 8 8 8 7 7 7 7 6 6 6 6
13 14 15 15 16 16 15 15 15 15 15 14 14 12 11 11 11 10 9 9 9 9 9 9 9 9 8 8 8 8 8 8 8 7 7 7 7 6 6 6 6 5 5 5
13 13 14 14 16 15 13 13 14 14 14 14 13 12 11 10 10 9 9 8 8 8 8 8 8 8 8 8 8 8 7 7 7 7 6 6 6 6 5 5 5 5 4 4
14 13 11 13 14 12 13 14 14 13 12 12 11 10 9 9 8 8 8 8 8 8 7 7 7 7 7 7 7 7 7 6 6 6 6 5 5 5 5 4 4 4 4 3
13 13 12 12 13 13 14 14 14 12 11 11 10 9 8 8 8 7 7 8 7 7 7 7 7 7 7 6 6 6 6 6 5 5 5 5 5 4 4 4 4 3 3 3
14 12 12 12 12 12 12 14 14 12 11 10 10 9 9 9 8 7 7 7 7 7 7 7 6 6 6 6 6 6 5 5 5 5 4 4 4 4 4 3 3 3 3 3
13 12 12 11 11 12 13 14 13 12 10 10 10 9 9 8 7 7 7 7 6 6 6 6 6 6 6 6 5 5 5 5 4 4 4 4 4 4 3 3 3 3 3 3
12 12 11 10 10 11 12 12 11 10 10 10 10 9 9 7 7 6 6 6 6 6 6 6 6 5 5 5 5 5 4 4 4 4 4 4 4 3 3 3 3 3 3 3
12 11 10 10 10 11 12 12 12 12 11 10 9 9 8 7 6 6 6 6 6 6 6 5 5 5 5 5 5 5 4 4 4 4 4 4 4 3 3 3 3 3 3 3
14 12 10 9 10 11 12 12 12 12 11 10 9 8 8 7 6 6 6 6 6 6 5 5 5 5 5 5 5 4 4 4 4 4 4 4 4 4 3 3 3 3 3 3
13 12 10 9 10 11 11 11 11 11 10 9 8 8 8 7 6 6 6 6 6 5 5 5 5 5 5 5 5 5 4 4 4 4 4 4 4 4 4 3 3 3 3 3
11 11 9 9 11 10 10 11 11 10 10 9 8 7 7 7 6 6 6 6 6 5 5 5 5 5 5 5 5 5 5 4 4 4 4 4 4 4 4 4 3 3 3 2

GEFSCGP_850_meantemp_042.txt.gz
Temperature
15 13 14 14 15 16 18 18 18 18 19 20 19 19 18 19 20 20 21 21 22 22 23 22 22 22 22 22 22 22 22 22 21 21 20 20 19 19 18 18 18 18 17 17
14 15 15 16 16 17 17 18 18 18 19 20 19 18 17 17 17 18 19 20 21 21 21 22 22 22 22 22 22 22 22 21 21 21 20 20 19 19 18 18 18 18 17 17
16 16 17 17 17 17 17 17 18 19 18 19 19 18 17 17 16 16 17 18 19 19 20 20 21 21 22 21 21 22 21 21 21 21 20 19 19 18 18 18 17 17 17 17
16 16 17 17 17 17 16 18 18 19 18 17 19 17 17 16 16 16 15 15 16 17 17 18 19 19 20 20 21 21 21 21 20 20 20 20 19 19 18 18 17 16 16 16
16 17 17 17 17 17 17 18 18 18 18 17 17 17 16 16 16 16 15 15 15 15 16 16 17 17 18 19 19 20 20 19 19 19 19 19 19 18 18 17 16 16 15 15
16 17 17 17 18 18 18 18 17 15 15 17 17 16 16 16 16 16 15 14 14 14 15 15 16 17 17 18 18 19 19 18 18 18 18 18 18 18 17 16 16 15 14 14
16 17 17 18 19 18 17 16 15 16 15 16 16 16 16 16 15 15 14 13 14 14 14 15 15 16 16 17 17 17 17 17 17 17 17 17 17 17 16 16 15 14 14 13
16 16 17 18 18 17 16 16 15 16 16 15 16 16 15 15 14 14 13 13 13 13 14 14 14 14 15 15 16 16 16 16 16 16 16 16 16 15 15 15 14 13 13 13
15 16 17 18 18 17 16 15 15 14 16 15 15 16 15 15 14 13 13 12 12 13 13 13 13 14 14 14 15 15 15 15 15 15 15 15 14 14 14 13 13 13 12 12
15 16 16 17 17 16 16 14 13 14 15 15 15 15 15 15 14 13 12 12 12 12 12 13 13 13 13 13 14 14 14 14 14 14 14 14 13 13 13 13 12 12 11 10
15 15 15 16 15 15 16 15 13 12 13 14 14 14 15 14 14 13 12 11 11 11 11 12 12 12 12 13 13 13 13 13 13 13 12 12 12 12 12 11 10 10 9 9
14 13 14 16 16 15 15 14 13 14 13 13 13 14 13 13 13 12 11 11 11 11 11 11 11 11 11 11 12 12 12 11 11 11 11 11 11 10 10 9 9 8 8 8
14 13 14 15 15 14 14 14 13 11 11 12 13 13 13 12 12 11 11 10 10 11 10 10 10 10 10 10 10 10 10 10 10 10 10 10 9 9 8 8 8 7 7 7
13 12 13 14 14 14 14 14 13 13 12 12 13 13 12 12 11 11 10 10 10 10 10 10 9 9 9 9 9 9 9 9 9 9 9 8 8 8 7 7 7 6 6 6
12 12 13 13 14 14 13 13 13 13 12 12 13 13 12 12 11 10 9 9 9 9 9 8 8 8 8 8 8 8 8 8 8 8 7 7 7 7 6 6 6 6 5 5
11 12 13 13 13 13 13 13 13 13 12 12 12 12 11 10 10 9 9 9 8 8 8 8 8 7 7 7 7 7 7 7 7 7 6 6 6 6 6 5 5 5 4 4
10 11 12 12 13 13 11 11 12 11 11 12 12 11 11 10 9 9 8 8 8 8 7 7 7 7 7 7 7 6 6 6 6 6 6 5 5 5 5 4 4 4 4 3
10 9 9 11 13 12 12 12 12 11 11 10 10 10 9 9 8 8 8 8 7 7 7 7 7 6 6 6 6 6 6 6 5 5 5 5 4 4 4 4 4 3 3 3
10 10 9 9 11 11 12 12 12 11 10 10 10 9 8 8 8 7 7 7 7 7 7 6 6 6 6 6 6 5 5 5 5 4 4 4 4 4 4 3 3 3 3 2
10 9 9 9 11 11 12 12 12 11 10 10 9 8 8 8 8 7 7 7 6 6 6 6 6 6 5 5 5 5 5 4 4 4 4 4 4 3 3 3 3 3 3 2
11 9 9 9 10 11 11 11 12 11 10 9 9 8 8 8 7 7 6 6 6 6 6 6 5 5 5 5 5 5 4 4 4 4 4 4 3 3 3 3 3 3 3 2
11 10 9 9 10 11 11 11 10 9 9 9 9 8 7 7 6 6 6 6 6 6 5 5 5 5 5 4 5 4 4 4 4 4 3 3 3 3 3 3 3 3 3 2
9 9 8 8 9 9 9 10 10 10 9 9 9 8 7 6 6 6 6 6 6 5 5 5 5 5 4 4 4 4 4 4 4 4 4 3 3 3 3 3 3 3 3 2
10 8 8 8 9 9 10 10 10 10 10 9 9 8 7 6 6 6 6 6 5 5 5 5 5 5 4 4 4 4 4 4 4 4 4 4 3 3 3 3 3 3 3 2
10 9 8 8 9 9 10 10 10 10 10 9 8 8 7 7 6 6 6 5 5 5 5 5 5 5 4 4 4 4 4 4 4 4 4 4 4 4 4 3 3 3 3 2
9 8 9 9 10 9 10 10 10 10 9 9 8 7 7 7 6 6 6 5 5 5 5 5 5 5 4 4 4 4 4 4 4 4 4 4 4 4 4 4 3 3 3 2

GEFSCGP_850_meantemp_048.txt.gz
Temperature
20 21 22 22 23 23 23 23 24 24 25 25 25 25 25 25 26 26 26 25 25 24 23 21 21 20 20 19 20 20 20 19 19 18 18 18 18 18 18 18 18 18 18 17
21 21 22 23 22 22 22 23 23 24 24 24 24 24 24 24 23 23 23 23 23 23 21 21 20 20 19 19 19 20 20 20 20 19 19 18 18 18 18 18 18 18 18 17
21 22 22 22 21 21 22 23 23 24 24 24 24 24 23 23 22 21 21 21 21 20 20 19 19 19 19 19 19 19 19 20 20 19 19 18 18 18 17 18 17 18 18 17
22 22 22 21 22 22 22 23 23 23 24 25 25 24 23 22 21 20 19 19 18 18 18 18 18 18 18 18 18 18 19 19 19 19 18 18 18 18 18 17 17 17 17 17
22 22 22 21 22 22 23 24 23 23 24 24 24 25 22 22 20 19 18 17 16 16 16 16 16 16 17 17 17 18 18 18 18 19 18 18 18 17 17 17 17 17 16 16
22 23 22 22 23 23 23 23 23 23 24 23 24 24 21 21 19 18 16 15 14 14 14 15 15 15 16 16 17 17 18 18 18 18 18 18 17 16 16 16 16 16 15 15
21 22 23 23 22 23 23 22 22 22 23 23 24 23 19 18 18 17 15 14 13 13 13 14 14 14 15 15 16 16 17 17 17 17 17 17 17 16 16 15 15 15 14 14
21 21 22 22 22 23 23 23 23 23 23 23 23 21 18 17 16 15 14 13 13 12 12 13 13 13 13 14 14 15 15 15 16 16 16 16 16 15 15 15 14 14 14 13
21 21 22 22 23 23 23 23 25 24 24 23 22 20 17 17 16 15 14 13 12 12 12 12 12 12 12 13 13 14 14 14 14 14 14 14 14 14 14 13 13 13 13 12
21 20 22 22 23 23 24 24 23 23 22 22 21 21 19 17 16 16 14 13 11 11 11 11 11 11 12 12 12 13 13 13 13 13 13 13 13 13 13 12 12 12 11 11
20 20 21 22 22 22 23 23 23 24 24 23 21 21 20 18 17 15 14 12 11 11 11 10 10 10 11 11 11 11 11 12 12 12 12 12 11 11 11 11 10 10 9 9
20 20 21 21 22 22 22 23 23 22 22 23 23 19 18 18 16 14 12 11 11 10 10 10 10 10 10 10 10 10 10 10 10 10 10 10 10 9 9 9 8 8 7 7
20 20 20 20 21 22 22 22 22 23 23 23 22 18 17 16 14 13 11 10 10 9 9 9 9 9 9 9 9 9 9 9 9 9 9 8 8 8 7 7 7 6 6 6
19 20 20 19 20 21 21 21 22 22 23 22 22 18 16 14 13 12 11 10 9 9 9 8 8 8 8 8 8 8 8 8 8 8 7 7 7 7 6 6 6 6 6 6
20 20 20 20 20 20 20 20 21 21 21 21 20 18 16 14 13 11 10 10 9 8 8 8 8 7 7 7 7 7 7 7 7 7 7 6 6 6 6 5 5 5 5 5
19 19 19 19 20 20 19 19 19 19 19 19 18 15 14 13 11 10 10 9 8 8 7 7 7 7 7 7 6 6 6 6 6 6 6 5 5 5 5 5 4 4 4 4
20 19 19 19 19 19 18 17 18 17 17 17 16 14 13 12 11 10 9 9 8 7 7 7 7 6 6 6 6 6 6 6 6 5 5 5 5 4 4 4 4 3 3 3
19 19 19 19 19 17 16 18 17 17 16 16 15 13 12 10 9 9 8 8 7 7 7 6 6 6 6 6 6 6 5 5 5 5 4 4 4 4 3 3 3 3 3 3
19 19 19 19 19 17 17 17 17 16 14 14 13 11 10 9 8 8 7 7 7 7 6 6 6 6 6 6 5 5 5 5 5 4 4 4 4 4 3 3 3 3 3 3
19 19 19 19 18 17 16 17 16 16 14 13 12 11 10 10 10 8 7 7 6 6 6 6 6 6 5 5 5 5 5 5 4 4 4 4 4 4 3 3 3 3 3 3
19 19 19 18 18 17 16 16 16 15 14 13 12 11 11 11 10 7 7 6 6 6 6 6 6 5 5 5 5 5 5 4 4 4 4 4 4 3 3 3 3 3 3 3
19 19 18 18 17 16 15 16 16 14 13 12 11 10 10 8 7 7 6 6 6 6 6 5 5 5 5 5 5 5 4 4 4 4 4 4 4 4 4 3 3 3 3 4
18 18 18 17 16 14 13 14 13 13 12 11 11 10 8 7 7 6 6 6 6 6 5 5 5 5 5 5 5 5 4 4 4 4 4 4 4 4 4 4 4 4 4 4
17 17 17 16 15 14 13 13 12 12 12 11 10 9 8 7 6 6 6 6 5 5 5 5 5 5 5 5 5 4 4 4 4 4 4 4 4 4 4 4 4 4 4 4
18 17 17 16 15 14 13 12 12 11 11 10 9 9 8 7 7 6 6 6 6 6 5 5 5 5 5 5 5 5 4 4 4 4 4 5 5 5 4 4 4 3 3 3
18 18 17 17 15 15 13 12 11 10 10 9 8 8 8 7 7 7 6 6 6 6 6 5 5 5 5 5 5 5 5 5 5 5 5 5 5 5 4 4 3 3 3 2

GEFSCGP_850_meantemp_054.txt.gz
Temperature
23 23 23 24 25 25 25 25 26 27 29 28 27 27 28 28 28 27 27 27 26 26 25 25 24 23 23 22 21 21 20 20 19 19 19 19 19 19 18 18 18 18 18 18
24 23 25 25 26 25 25 25 25 27 28 27 27 26 27 27 26 24 24 23 23 23 23 23 23 22 22 21 20 20 20 19 19 19 19 19 19 19 19 18 18 18 18 18
23 24 25 25 25 24 24 25 25 26 27 27 26 25 26 25 24 23 22 21 20 19 20 20 21 21 21 20 20 19 19 19 19 19 19 19 19 18 18 18 18 18 18 18
24 25 25 24 24 24 24 26 26 26 25 25 26 23 24 24 23 22 20 19 18 18 18 18 18 19 19 19 19 19 19 19 19 19 18 18 18 18 18 18 18 18 18 17
24 25 24 24 24 25 25 26 26 26 25 25 25 23 22 23 21 20 19 18 17 16 16 16 17 17 18 18 18 18 18 18 18 18 18 18 18 18 18 17 17 17 17 16
24 25 25 25 25 26 26 25 25 25 25 24 25 24 21 21 20 19 18 16 15 15 15 15 15 16 17 17 17 17 17 18 18 18 18 17 17 17 17 17 16 16 16 15
21 23 25 25 24 25 25 24 23 23 23 24 26 24 19 19 19 18 16 15 14 14 14 14 14 14 15 15 16 16 16 16 17 17 17 16 16 16 16 16 15 15 15 14
19 20 23 25 24 24 24 24 22 22 23 24 25 23 19 18 18 16 15 14 13 13 13 13 13 13 13 14 14 15 15 15 15 15 15 15 15 15 15 14 14 14 13 13
18 19 22 24 25 25 24 24 25 23 23 22 22 19 18 18 17 16 15 13 12 12 12 12 12 12 12 13 13 13 14 14 14 14 14 14 14 14 14 13 13 12 12 12
19 18 21 24 25 25 25 25 24 23 21 20 20 20 18 17 17 16 14 13 12 11 11 11 11 11 11 11 12 12 12 12 12 13 13 13 12 12 12 12 11 11 10 10
19 18 20 23 24 24 24 24 24 24 23 20 18 18 19 17 16 15 13 12 11 11 11 11 10 11 10 10 10 11 11 11 11 11 11 11 11 11 11 10 10 9 9 9
19 18 18 20 23 25 25 25 24 23 23 23 20 16 16 16 15 14 12 11 10 10 10 10 10 10 10 9 9 9 9 10 10 10 10 10 10 9 9 9 8 8 8 7
20 17 17 19 22 23 24 24 25 24 23 23 20 16 15 14 13 12 11 10 10 10 10 9 9 9 9 9 9 9 9 9 8 9 9 9 8 8 8 7 7 7 7 7
20 17 16 16 18 19 21 23 24 24 23 21 19 16 14 13 13 11 11 10 10 9 9 9 8 8 8 8 8 8 8 8 8 8 8 7 7 7 7 6 6 6 6 6
21 17 17 18 19 19 21 22 23 23 22 20 17 16 14 13 12 11 10 10 9 9 8 8 8 8 7 7 7 7 7 7 7 7 7 6 6 6 6 6 5 5 5 5
22 19 19 19 21 22 22 22 22 22 21 19 17 15 13 12 11 11 10 9 9 8 8 8 7 7 7 7 7 7 7 6 6 6 6 6 6 5 5 5 5 5 4 4
22 20 19 20 22 22 20 21 21 20 19 19 17 14 13 12 11 10 10 9 8 8 8 7 7 7 7 7 7 6 6 6 6 6 5 5 5 5 5 5 4 4 4 4
22 21 20 20 20 18 19 21 21 19 18 17 15 14 13 11 10 9 9 9 8 8 8 7 7 7 7 7 6 6 6 6 6 6 5 5 5 5 5 4 4 4 4 4
22 21 21 20 19 18 19 21 21 19 16 16 14 13 11 10 9 9 9 8 8 8 7 7 7 7 7 6 6 6 6 6 6 6 5 5 5 5 5 5 4 4 4 4
23 22 21 21 19 17 18 20 20 19 15 15 14 13 12 12 11 8 8 8 7 7 7 7 7 7 6 6 6 6 6 6 6 5 5 5 5 5 5 5 5 5 5 5
22 22 21 21 19 18 19 20 20 17 15 15 14 13 12 12 11 8 8 7 7 7 7 7 7 6 6 6 6 6 6 6 6 5 5 5 5 5 5 5 5 5 5 5
22 21 21 20 18 16 19 19 17 15 15 14 13 12 11 10 8 8 7 7 7 7 7 6 6 6 6 6 6 6 6 6 6 5 5 5 5 5 5 5 5 5 5 5
22 20 20 19 17 17 17 17 16 15 14 13 12 11 10 9 8 8 7 7 7 7 7 6 6 6 6 6 6 6 6 6 6 5 5 5 5 5 5 5 5 5 5 5
21 21 20 18 18 17 17 16 15 14 14 13 11 10 10 9 8 8 7 7 7 7 7 7 6 6 6 6 6 6 6 6 6 5 5 5 5 5 5 5 5 5 5 4
21 21 20 18 18 17 16 15 15 14 13 12 11 10 9 9 8 8 7 7 7 7 7 7 6 6 6 6 6 6 6 6 6 6 6 6 6 5 5 5 5 4 4 4
22 21 20 19 18 17 16 15 14 13 13 12 11 10 9 9 8 8 8 7 7 7 7 7 7 7 6 6 6 6 6 6 6 6 6 6 6 6 5 5 5 4 4 4

GEFSCGP_850_meantemp_060.txt.gz
Temperature
20 17 16 16 17 17 18 18 18 20 21 20 19 19 18 18 18 18 18 18 18 18 19 21 21 21 21 21 20 19 20 20 20 19 19 19 18 18 18 18 18 18 18 18
17 16 18 19 19 19 19 19 18 20 21 21 18 18 17 17 17 17 17 16 16 17 18 19 20 20 20 20 19 19 19 20 19 19 19 19 19 18 18 18 18 18 17 17
17 18 20 20 20 20 20 19 19 20 21 20 19 17 17 16 16 16 15 15 16 16 17 18 18 19 19 19 18 18 19 19 19 19 19 19 18 18 18 17 17 17 17 17
18 19 20 20 20 21 19 20 21 21 19 18 19 16 16 16 15 15 14 14 14 15 16 16 17 18 17 18 18 18 18 18 18 18 18 18 18 18 17 17 17 17 17 17
18 19 19 19 20 21 20 20 20 20 19 18 18 16 16 16 15 14 14 13 13 14 14 15 15 16 17 17 17 17 17 18 18 18 18 18 17 17 17 17 16 16 16 16
19 19 20 20 21 21 21 20 19 18 16 17 18 17 16 15 15 14 13 13 13 13 13 14 14 15 15 16 16 16 16 16 17 17 17 17 17 17 16 16 16 15 15 15
18 18 19 20 20 19 20 17 16 16 15 16 17 17 15 15 15 14 13 12 12 12 12 13 13 14 14 14 15 15 15 15 16 16 16 16 16 16 15 15 15 15 14 14
16 16 18 19 19 18 18 17 16 16 16 16 16 16 15 14 13 13 12 11 11 11 11 12 12 12 12 13 13 14 14 14 14 14 14 14 15 14 14 14 14 13 13 13
16 16 18 19 20 19 19 18 16 16 16 15 15 15 14 14 13 12 12 11 11 11 10 10 11 11 11 12 12 12 12 12 13 13 13 13 13 13 13 13 12 12 11 11
16 16 17 18 19 19 18 18 15 15 15 15 15 15 15 14 13 12 11 11 10 10 10 10 10 10 10 10 11 11 11 11 11 12 12 12 12 12 11 11 11 10 10 10
15 15 16 17 17 18 18 18 16 14 14 15 14 14 15 14 13 12 11 10 10 9 9 9 9 9 9 10 10 10 10 10 10 10 10 11 10 10 10 10 9 9 9 9
15 13 14 15 17 18 18 17 16 15 14 14 14 13 13 12 12 11 10 9 9 9 9 9 9 9 9 9 9 9 9 9 9 9 9 9 9 9 9 8 8 8 7 7
15 13 14 15 15 16 16 17 16 14 13 13 14 13 12 12 11 10 10 9 9 9 8 8 8 8 8 8 8 8 8 8 8 8 8 8 8 7 7 7 7 7 7 7
15 13 14 14 15 14 15 17 17 15 13 14 14 13 12 11 11 10 9 9 8 8 8 8 8 7 7 7 7 7 7 7 7 7 7 7 7 6 6 6 6 6 6 6
15 14 14 14 15 16 16 17 17 16 15 14 14 13 12 11 10 10 9 8 8 8 8 7 7 7 7 7 7 7 6 6 7 7 6 6 6 5 5 5 5 5 5 5
14 15 15 15 16 17 17 17 16 16 15 14 13 12 11 11 10 9 9 8 8 8 7 7 7 7 7 7 6 6 6 6 6 6 5 5 5 5 5 5 5 5 5 5
14 14 14 14 16 16 15 15 15 15 14 14 13 12 11 10 10 9 9 8 8 8 7 7 7 7 7 6 6 6 6 6 5 5 5 5 5 5 5 5 5 4 4 4
14 13 12 14 15 14 15 16 15 14 13 12 11 11 11 10 9 9 9 8 8 8 7 7 7 7 6 6 6 6 6 5 5 5 5 5 5 5 5 4 4 4 4 4
15 14 13 13 14 14 15 16 15 13 12 11 11 10 9 9 8 8 8 8 8 8 7 7 7 6 6 6 6 6 5 5 5 5 5 5 5 5 5 4 4 4 4 4
15 14 13 13 14 14 15 16 15 13 11 11 10 9 9 9 8 8 8 8 8 7 7 7 6 6 6 6 6 5 5 5 5 5 5 5 5 5 5 5 4 4 4 4
16 15 14 14 13 14 15 16 15 13 11 11 10 9 9 9 8 8 8 8 7 7 7 7 6 6 6 6 6 5 5 5 5 5 5 5 5 5 5 5 5 5 4 4
15 14 14 13 12 13 14 14 13 11 11 11 10 10 9 9 8 8 8 7 7 7 6 6 6 6 6 6 6 5 5 5 5 5 5 5 5 5 5 5 5 5 4 4
14 13 12 11 11 12 14 13 13 13 11 10 10 10 9 8 8 7 7 7 7 7 6 6 6 6 6 5 5 5 5 5 5 5 5 5 5 5 5 5 5 4 4 4
15 13 12 11 12 12 12 13 13 13 12 11 10 10 9 8 7 7 7 7 6 6 6 6 6 6 5 5 5 5 5 5 5 5 5 5 5 5 5 5 4 4 4 4
15 14 12 11 11 12 12 12 12 11 11 10 9 9 9 8 7 7 7 7 6 6 6 6 6 6 6 6 5 5 5 5 5 5 5 5 5 5 5 5 4 4 4 4
14 13 12 11 12 11 11 11 12 11 10 10 9 8 8 8 8 7 7 7 6 6 6 6 6 6 6 6 6 6 6 6 5 5 5 5 5 5 5 5 4 4 4 4

GEFSCGP_850_meantemp_066.txt.gz
Temperature
17 15 15 15 14 15 16 16 15 16 17 16 15 15 15 15 15 15 15 15 15 16 17 17 18 19 19 19 19 19 19 19 18 18 18 18 18 18 18 18 18 17 17 17
15 15 16 16 16 15 15 15 15 16 17 17 15 15 15 15 14 14 14 14 14 15 16 16 17 17 18 18 18 18 18 18 18 18 18 18 17 17 17 17 17 17 17 17
16 17 18 17 17 17 16 15 16 16 16 16 15 15 15 15 14 14 14 14 14 14 14 15 16 16 17 17 17 17 17 17 17 17 17 17 17 17 16 16 16 17 17 16
15 16 17 18 17 17 16 17 17 17 16 15 15 15 15 14 14 14 13 13 13 13 14 14 14 15 15 16 16 16 17 17 17 17 17 17 17 16 16 16 16 16 16 16
16 17 17 17 18 18 17 17 17 17 16 15 15 14 14 14 14 13 13 12 12 13 13 13 13 14 14 15 15 16 16 16 16 16 16 16 16 16 15 15 15 15 15 15
16 17 17 17 18 18 18 17 16 14 14 15 15 14 14 14 14 13 12 12 12 12 12 12 13 13 13 14 14 15 15 15 15 15 15 15 15 14 14 14 14 14 14 14
16 17 17 18 17 17 16 15 14 15 14 14 14 14 14 14 13 13 12 11 11 11 11 11 12 12 12 12 13 14 14 14 14 14 14 14 14 14 13 13 13 13 13 13
15 15 17 17 17 17 16 15 14 15 14 14 14 14 13 13 12 12 11 10 10 10 10 10 10 11 11 12 12 12 13 12 13 13 13 13 13 13 13 12 12 12 12 12
15 15 16 17 17 17 16 15 14 13 14 13 13 14 13 12 12 11 10 10 10 10 10 10 10 10 10 10 11 11 11 12 12 12 12 12 12 12 11 11 11 11 11 11
15 15 16 16 16 16 16 14 12 13 14 14 14 14 13 13 12 11 10 9 9 9 9 9 9 9 9 10 10 10 11 11 11 11 11 10 10 10 10 10 10 10 9 9
15 14 15 15 16 16 15 15 13 12 13 13 13 13 14 13 12 11 10 9 8 8 8 8 8 8 9 9 9 9 9 10 10 10 10 10 9 9 9 9 8 8 8 8
13 12 13 14 15 15 15 15 13 14 13 12 12 13 12 12 11 10 9 8 8 8 8 8 8 8 8 8 8 8 8 9 9 9 9 8 8 8 8 8 7 7 7 7
13 12 13 14 15 15 15 15 13 12 11 11 12 13 12 11 10 10 9 8 8 7 7 7 7 7 7 7 7 8 8 8 8 8 8 7 7 7 7 7 7 6 7 6
13 12 13 14 14 14 15 15 14 12 12 12 13 13 12 11 10 9 8 8 7 7 7 7 7 7 7 7 7 7 7 7 7 7 7 7 6 6 6 6 6 6 6 6
13 13 14 13 14 14 14 15 14 13 13 13 13 12 12 11 10 9 8 8 7 7 6 6 6 6 6 6 6 6 6 6 6 6 6 6 6 5 5 5 5 5 5 5
12 13 14 14 15 14 14 15 14 13 13 12 12 12 11 10 9 9 8 8 7 7 6 6 6 6 6 6 6 6 6 5 6 6 5 5 5 5 5 5 5 5 5 5
11 12 13 13 14 15 14 14 14 13 12 12 12 11 10 10 9 9 8 7 7 7 6 6 6 6 6 6 5 5 5 5 5 5 5 5 5 5 5 5 5 5 4 4
11 11 10 12 14 14 14 13 13 12 11 11 11 10 10 9 9 8 8 8 7 7 7 6 6 6 5 5 5 5 5 5 5 5 5 5 5 5 4 4 4 4 4 4
11 11 11 11 13 13 14 13 13 12 11 11 10 10 9 8 8 8 8 8 7 7 7 6 6 6 6 5 5 5 5 5 5 5 5 4 5 5 4 4 4 4 4 4
11 11 11 11 13 13 13 14 13 12 11 10 10 9 9 9 9 8 7 7 7 7 7 6 6 6 5 5 5 5 5 5 5 5 4 4 4 4 4 4 4 4 4 4
13 12 12 12 12 12 13 13 14 13 11 10 9 9 9 9 8 8 7 7 7 7 6 6 6 6 5 5 5 5 5 5 5 5 4 4 4 4 4 4 4 4 4 4
13 12 12 11 12 12 12 12 12 11 10 10 9 9 9 8 8 7 7 7 7 6 6 6 6 5 5 5 5 5 5 5 5 5 4 4 4 4 4 4 4 4 4 4
12 11 10 10 11 10 10 11 11 11 10 9 9 9 9 8 7 7 7 7 6 6 6 6 6 5 5 5 5 5 5 5 5 5 5 5 5 4 4 4 4 4 4 4
11 9 9 10 10 10 10 11 11 11 11 10 10 9 9 8 7 7 7 6 6 6 6 6 6 5 5 5 5 5 5 5 5 5 5 5 5 4 4 4 4 4 4 4
11 10 9 10 10 10 10 11 11 11 11 10 9 9 9 8 7 7 7 6 6 6 6 6 5 5 5 5 5 5 5 5 5 5 5 5 5 5 4 4 4 4 4 4
10 11 10 10 10 9 10 10 11 11 10 10 9 8 8 8 7 7 7 6 6 6 6 5 5 5 5 5 5 5 5 5 5 5 5 5 5 5 4 4 4 4 4 3

GEFSCGP_850_meantemp_072.txt.gz
Temperature
22 23 23 23 23 23 23 23 23 23 24 23 23 22 22 21 21 20 20 19 18 17 16 16 16 17 17 17 17 17 17 17 17 17 17 17 17 17 17 17 17 17 17 17
23 23 24 24 23 23 23 23 23 23 23 23 22 22 21 20 19 18 18 17 16 16 16 15 15 16 16 16 16 17 17 17 17 17 17 17 17 17 17 17 17 17 17 17
23 24 24 23 23 22 23 23 23 23 23 23 22 21 21 20 19 17 16 15 15 14 14 14 14 15 15 16 16 16 16 16 16 16 16 16 16 16 16 16 16 16 16 16
23 24 23 23 23 23 22 24 23 23 22 22 22 21 21 20 19 18 16 15 14 13 13 14 14 14 14 15 15 15 15 16 16 16 16 16 15 15 15 15 15 15 15 15
23 24 23 23 23 23 23 24 23 23 22 22 22 22 22 21 19 18 16 14 13 13 13 13 13 13 13 14 14 14 15 15 15 15 15 15 15 15 15 15 15 14 14 15
24 24 23 23 24 23 23 23 23 23 23 21 22 22 21 21 20 18 15 13 12 12 12 12 12 13 13 13 13 14 14 14 14 15 15 15 15 15 14 14 14 14 14 14
23 24 24 23 23 23 22 22 21 21 21 21 22 21 20 20 19 17 15 13 11 11 11 11 11 12 12 12 13 13 13 13 13 14 14 14 13 13 13 13 13 13 13 13
22 23 23 23 22 22 22 22 21 20 21 21 21 21 19 18 17 15 13 12 11 10 10 10 10 11 11 11 12 12 12 12 12 13 13 13 13 13 12 12 12 12 12 12
22 22 23 23 23 22 22 22 23 22 22 21 21 20 17 16 15 13 12 11 10 9 9 9 9 10 10 10 11 11 11 11 11 12 12 12 12 12 11 11 11 11 11 11
22 21 23 22 22 22 22 22 22 21 20 19 20 20 19 16 15 13 12 10 9 9 9 9 9 9 9 9 10 10 10 10 10 11 11 11 10 10 10 10 10 10 10 10
22 21 22 22 22 22 22 22 21 22 22 20 19 19 19 18 16 14 12 10 9 9 8 8 8 8 8 9 9 9 9 9 9 9 9 9 9 9 9 9 9 9 9 8
22 21 21 22 22 22 22 22 21 20 20 21 20 18 17 17 15 13 11 9 8 8 8 8 8 8 8 8 8 8 8 8 8 8 8 8 8 8 8 8 8 8 8 8
21 20 20 21 21 21 21 21 21 21 20 20 20 18 15 15 13 11 10 8 8 8 7 7 7 7 7 7 7 7 7 7 7 7 7 7 7 7 7 7 7 7 7 7
21 21 20 20 20 21 21 21 21 20 20 20 20 18 15 13 12 11 9 8 8 7 7 7 7 7 7 7 7 6 6 6 6 6 6 6 6 6 6 6 6 6 6 6
20 21 21 21 21 21 21 21 21 20 20 20 19 18 16 14 12 10 9 8 7 7 7 7 6 6 6 6 6 6 6 6 6 6 6 5 5 5 5 5 6 6 5 5
20 20 21 20 21 21 20 20 20 20 20 20 19 17 16 13 11 9 8 8 7 7 6 6 6 6 6 6 6 6 5 5 5 5 5 5 5 5 5 5 5 5 5 5
21 20 20 20 21 20 20 20 20 19 19 19 18 17 14 12 11 9 8 8 7 6 6 6 6 6 5 5 5 5 5 5 5 5 5 5 5 5 5 5 5 5 4 4
20 20 20 20 20 19 20 20 20 19 18 18 17 16 14 12 10 9 8 8 7 6 6 6 5 5 5 5 5 5 5 5 5 5 5 5 5 5 5 5 5 4 4 4
20 20 20 20 20 20 19 19 19 19 18 17 16 14 12 10 9 8 8 7 7 6 6 6 5 5 5 5 5 5 5 5 5 5 5 5 5 5 5 5 4 4 4 4
20 20 20 20 19 19 19 19 19 19 17 16 15 13 11 11 11 9 7 7 7 6 6 5 5 5 5 5 5 5 5 5 5 5 5 5 5 5 5 4 4 4 4 4
20 20 20 20 20 20 19 18 18 18 17 15 14 12 12 12 12 9 7 7 6 6 6 5 5 5 5 5 5 5 5 5 5 5 5 5 5 5 4 4 4 4 4 4
21 21 20 20 20 20 18 18 18 16 15 14 13 12 11 10 9 8 7 7 6 6 6 5 5 5 5 5 5 5 5 5 5 5 5 5 5 5 5 4 4 4 4 4
21 21 21 20 19 16 15 16 14 14 14 13 12 11 10 9 8 7 7 6 6 6 6 6 5 5 5 5 5 5 5 5 5 5 5 5 5 5 4 4 4 4 4 5
20 19 20 19 17 15 14 14 14 13 13 12 11 10 10 8 8 7 7 6 6 6 6 6 6 5 5 5 5 5 5 5 5 5 5 5 5 5 4 5 5 5 5 5
21 19 19 19 16 15 14 14 13 12 12 11 10 10 9 8 8 7 7 6 6 6 6 6 6 5 5 5 5 5 5 5 5 5 5 5 5 5 5 4 4 4 4 4
21 20 20 20 17 17 14 13 12 12 11 10 10 9 9 8 8 7 7 6 6 6 6 6 6 6 5 5 5 5 5 5 5 5 5 5 5 5 5 5 4 4 4 4

GEFSCGP_850_meantemp_078.txt.gz
Temperature
25 25 25 26 27 27 26 26 26 27 28 27 26 26 26 25 24 23 22 21 19 18 17 17 18 18 18 18 18 18 18 18 18 17 17 17 17 16 17 16 16 17 17 17
25 25 26 27 27 26 26 25 26 27 27 26 26 25 25 24 24 22 21 20 18 17 16 16 16 16 16 17 17 17 17 17 17 17 17 16 16 16 16 16 16 16 16 16
25 26 27 27 26 26 26 25 26 26 26 26 25 24 23 23 22 21 20 18 17 16 15 15 15 15 15 16 16 16 16 17 16 16 16 16 16 16 15 16 16 16 16 16
26 27 27 26 26 26 25 26 26 26 25 25 25 22 21 21 20 20 18 17 16 15 14 14 14 14 14 15 15 15 16 16 16 16 16 15 15 15 15 15 15 15 15 15
26 27 26 26 26 26 26 27 26 25 24 24 24 22 21 20 19 18 17 16 15 14 14 13 13 13 13 14 14 15 15 15 15 16 16 15 15 15 15 15 15 15 15 15
26 27 27 27 27 27 26 26 25 24 24 22 23 21 20 19 18 17 16 15 14 13 13 12 12 12 12 13 14 14 14 14 14 15 15 15 15 14 14 14 14 14 14 14
25 26 26 27 26 26 26 24 22 20 20 20 21 21 19 19 18 17 15 14 13 13 12 12 12 12 12 12 13 13 13 13 13 14 14 14 14 14 14 13 13 13 13 13
24 24 25 26 26 25 25 24 21 19 19 19 19 19 17 18 17 16 14 13 12 12 11 11 10 11 11 11 12 12 13 13 13 13 13 13 13 13 12 12 12 12 12 12
24 24 26 27 27 26 24 24 24 22 21 19 19 18 17 17 16 15 14 13 12 11 10 10 10 10 10 10 11 11 12 12 12 12 12 12 12 12 11 11 11 11 11 11
25 23 25 26 26 26 26 25 24 22 20 19 18 18 16 16 15 15 14 13 11 10 10 10 10 10 10 10 10 10 11 11 11 11 11 11 11 10 10 11 11 10 10 10
25 23 24 25 24 24 25 24 24 23 22 19 18 17 17 16 16 15 14 12 11 10 9 9 9 9 9 9 9 9 9 10 10 10 10 9 9 9 9 9 9 9 9 9
25 24 23 23 24 25 25 24 24 22 21 21 19 17 17 16 15 14 13 11 10 10 9 9 9 9 8 8 8 8 8 9 9 9 9 9 9 8 8 8 8 8 8 8
24 22 21 21 21 22 23 24 24 23 21 20 18 16 16 15 14 13 11 10 9 9 9 8 8 8 8 8 8 8 8 8 8 8 8 8 8 8 8 7 7 8 8 7
24 22 21 20 19 20 22 23 24 23 21 20 19 17 15 14 13 12 10 9 9 9 8 8 8 7 7 7 7 7 7 7 7 7 7 7 7 7 7 7 7 7 7 7
23 22 22 22 23 23 23 23 23 23 22 21 20 18 16 14 13 11 10 9 9 8 8 8 7 7 7 7 7 7 6 6 6 7 7 6 6 6 6 6 6 6 6 6
23 22 22 22 23 23 23 23 23 23 22 21 20 18 17 15 13 11 10 10 9 8 8 7 7 7 7 7 7 6 6 6 6 6 6 6 6 6 6 6 6 6 6 6
22 21 20 20 22 23 22 23 23 23 23 21 19 17 16 14 12 11 10 10 9 8 7 7 7 7 7 7 6 6 6 6 6 6 6 6 6 6 6 6 6 6 5 5
22 21 20 20 21 19 21 24 23 23 22 21 19 17 16 14 12 11 10 9 8 7 7 7 6 6 6 6 6 6 6 6 6 6 6 6 6 6 6 5 5 5 5 5
23 21 21 20 19 20 21 22 23 21 20 20 18 16 14 12 11 9 9 9 8 7 7 6 6 6 6 6 6 6 6 6 6 6 6 6 6 6 5 5 5 5 5 5
23 23 21 20 19 19 19 22 22 22 19 19 17 16 14 13 12 10 8 8 7 7 7 6 6 6 6 6 6 6 6 6 6 6 6 6 6 5 5 5 5 5 5 5
21 22 21 20 19 19 20 22 22 20 17 18 17 15 14 14 13 9 8 7 7 7 6 6 6 6 6 6 6 6 6 6 6 6 6 6 6 6 5 5 5 5 5 5
22 21 21 20 19 18 20 21 20 18 18 17 16 14 13 11 10 8 8 7 7 6 6 6 6 6 6 6 6 6 6 6 6 6 6 6 6 6 5 5 5 5 6 5
22 21 21 20 19 19 19 19 18 18 17 16 14 13 11 10 9 8 8 7 7 7 6 6 6 6 6 6 6 6 6 6 6 6 6 6 6 6 6 6 6 6 6 6
22 22 22 21 20 20 19 18 18 17 16 15 13 12 11 10 9 8 8 7 7 7 6 6 6 6 6 6 6 6 6 6 6 6 6 6 6 6 6 6 6 6 6 6
20 21 21 21 20 19 19 18 17 16 15 14 13 12 11 10 9 8 8 7 7 7 7 7 6 6 6 6 6 6 6 6 6 6 6 6 6 6 6 6 6 6 6 6
21 21 22 21 20 20 18 17 16 15 14 13 12 11 11 10 9 8 8 8 7 7 7 7 7 6 6 6 6 6 6 6 6 6 6 6 6 6 6 5 5 6 6 6

GEFSCGP_850_meantemp_084.txt.gz
Temperature
21 18 17 17 18 18 20 20 20 21 22 21 20 19 18 18 17 16 16 15 15 15 15 16 16 17 17 17 17 17 17 17 17 17 17 16 16 16 16 16 16 16 16 16
18 17 19 20 21 21 20 21 21 21 22 21 19 18 17 17 16 16 15 15 15 15 15 15 15 16 16 16 16 17 17 16 16 16 16 16 16 16 16 16 16 16 16 16
18 19 21 22 21 21 21 21 21 21 21 21 20 18 17 16 16 15 15 14 14 14 14 14 14 15 15 15 15 16 16 16 16 16 16 16 15 15 15 15 15 15 15 15
19 21 22 22 22 22 21 22 22 22 20 18 19 17 16 15 15 14 13 13 12 12 13 13 13 13 14 14 14 15 15 15 15 15 15 15 15 15 15 15 15 15 15 15
19 21 21 21 22 22 21 22 21 21 19 17 17 16 15 15 15 14 13 12 12 11 12 12 12 12 13 13 13 13 14 14 15 15 15 15 15 15 15 14 14 14 14 14
20 22 22 22 23 23 22 20 19 16 16 16 16 16 15 14 14 13 12 12 11 11 11 11 11 11 12 12 12 13 13 14 14 14 14 14 14 14 14 14 14 14 14 14
20 21 22 22 22 22 21 17 16 16 15 15 16 15 14 14 14 13 12 11 11 11 11 11 11 11 11 11 12 12 12 13 13 13 13 14 13 13 13 13 13 13 13 13
19 19 21 22 21 21 20 18 16 16 15 15 15 15 14 13 13 12 11 11 10 10 10 10 10 10 10 11 11 12 12 12 12 12 13 13 13 13 13 12 12 12 12 12
19 19 22 23 22 21 20 18 17 15 15 14 14 14 13 13 12 11 11 10 10 10 10 9 9 9 9 10 10 11 11 11 11 12 12 12 12 12 12 12 12 12 12 11
19 19 21 22 21 20 19 18 15 15 15 15 15 14 13 13 12 11 10 9 9 9 9 9 9 9 9 9 9 10 10 10 10 10 11 11 11 11 11 11 11 10 10 10
19 18 19 20 19 19 19 18 16 14 14 14 14 14 15 13 12 11 10 9 9 9 9 8 8 8 8 8 9 9 9 9 9 9 9 10 10 10 10 10 10 9 9 9
18 16 17 18 19 19 19 18 16 15 15 14 14 14 14 13 12 11 10 9 9 9 8 8 8 8 8 8 8 8 8 8 9 9 9 9 9 9 9 9 9 9 9 9
18 16 16 16 17 18 18 18 17 15 14 14 14 14 13 12 11 10 9 9 8 8 8 8 7 7 7 7 7 7 7 8 8 8 8 8 8 8 8 8 8 8 8 8
18 16 16 16 16 17 18 19 18 15 14 14 14 14 12 11 10 9 9 8 8 8 8 7 7 7 7 7 7 7 7 7 7 7 7 7 7 7 7 7 7 7 7 7
16 16 18 18 18 18 18 19 18 17 16 15 15 14 12 11 10 9 8 8 8 7 7 7 7 7 7 6 6 6 6 7 7 7 7 7 6 7 7 7 7 7 7 7
14 16 17 17 19 19 18 19 18 18 17 16 14 13 12 11 10 9 8 8 7 7 7 7 7 7 6 6 6 6 6 6 6 6 6 6 6 6 6 6 6 6 6 6
14 15 15 15 17 18 17 17 17 17 17 15 14 13 11 10 10 9 8 8 7 7 7 7 7 7 6 6 6 6 6 6 6 6 6 6 6 6 6 6 6 6 6 6
14 14 13 14 16 16 16 17 17 16 16 15 13 12 11 10 9 9 9 8 7 7 7 7 7 6 6 6 6 6 6 6 6 6 6 6 6 6 5 5 5 5 5 5
14 14 14 14 15 16 17 17 17 16 14 13 12 11 10 9 9 8 8 8 8 8 7 7 7 6 6 6 6 6 6 6 6 6 6 6 6 5 5 5 5 5 5 5
14 13 14 14 15 15 16 17 17 15 13 13 12 11 9 9 9 8 8 8 8 7 7 6 6 6 6 6 6 6 6 6 6 6 6 5 5 5 5 5 5 5 5 5
14 14 14 14 14 15 16 16 17 15 14 13 12 11 10 10 9 9 8 8 7 7 7 6 6 6 6 6 6 6 6 6 6 6 5 5 5 5 5 5 5 5 5 5
13 13 13 13 14 14 16 16 15 14 13 13 12 11 10 10 9 8 8 7 7 6 6 6 6 6 6 6 6 6 6 6 5 5 5 5 5 5 5 5 5 5 5 5
13 12 12 12 13 14 15 15 15 15 13 12 12 11 10 9 8 8 7 7 6 6 6 6 6 6 6 6 6 6 6 6 5 5 5 5 5 5 5 5 5 5 5 5
12 12 12 12 13 14 14 15 15 15 14 13 12 11 10 9 8 7 7 7 6 6 6 6 6 6 5 6 6 6 6 6 6 5 5 5 5 5 5 5 5 5 5 5
12 12 12 13 13 13 13 14 14 14 13 12 11 11 10 9 8 7 7 6 6 6 6 6 6 6 6 6 6 6 6 6 6 5 5 5 5 5 5 6 6 6 6 6
12 12 12 12 13 12 13 13 13 13 12 11 10 9 9 9 8 7 7 7 6 6 6 6 6 6 6 6 6 6 6 6 6 6 6 5 5 5 6 6 6 6 6 5

GEFSCGP_850_meantemp_090.txt.gz
Temperature
17 15 16 16 16 18 18 18 17 17 18 16 16 15 15 14 14 14 14 13 13 14 14 14 15 15 15 16 16 16 16 16 16 16 16 16 16 16 16 16 16 16 16 16
16 16 17 17 17 17 17 18 17 17 17 17 15 15 15 14 14 13 13 12 12 13 13 13 14 14 15 15 15 16 16 16 16 16 16 16 16 16 15 15 15 16 15 15
18 18 19 18 18 18 18 17 18 18 17 16 16 15 15 14 13 13 12 12 12 12 12 12 12 13 14 14 14 15 15 15 15 15 15 15 15 15 15 15 15 15 15 15
17 18 19 19 19 18 18 18 18 18 17 15 16 15 15 14 13 13 12 11 11 11 11 11 11 12 12 13 13 13 14 14 14 15 15 14 14 14 14 14 14 14 14 14
18 19 19 19 19 19 19 18 18 17 16 15 15 14 14 13 13 13 12 11 11 11 11 11 11 11 12 12 12 13 13 13 14 14 14 14 14 14 14 14 14 14 14 14
18 19 19 19 20 19 18 17 15 14 14 15 15 15 14 13 13 13 12 11 10 10 10 10 10 11 11 11 12 12 12 13 13 13 13 13 13 13 13 13 13 13 13 13
18 19 19 20 20 19 18 16 15 15 14 15 15 14 14 13 13 12 11 10 10 10 10 10 10 10 11 11 11 12 12 12 12 12 12 12 13 13 13 13 13 13 13 13
18 17 19 20 19 19 17 16 15 15 15 14 14 14 13 13 12 12 11 10 10 9 9 9 9 10 10 10 10 11 11 11 11 12 12 12 12 12 12 12 12 12 12 12
17 18 19 20 19 18 17 15 15 13 14 14 13 14 13 12 11 10 10 9 9 9 9 9 9 9 9 9 9 10 10 10 10 11 11 11 11 11 12 12 11 11 11 12
17 18 18 19 19 17 17 14 13 13 14 14 14 14 13 13 12 11 10 9 9 8 8 8 8 8 8 8 9 9 9 9 9 10 10 10 10 10 10 11 11 10 11 11
17 17 17 18 18 18 17 15 13 12 13 13 14 14 14 13 12 11 10 9 8 8 8 8 8 8 8 8 8 9 9 9 9 9 9 9 9 9 9 10 10 10 10 10
15 14 15 17 17 17 17 16 13 15 14 12 12 13 13 12 11 10 9 8 8 8 8 8 8 8 8 8 8 8 8 8 8 8 8 8 8 8 9 9 9 9 9 9
15 14 15 15 16 16 17 16 14 12 12 11 12 13 12 10 10 10 9 8 8 8 7 7 7 7 7 7 7 7 7 7 7 7 8 8 8 8 8 8 8 8 8 8
14 13 14 15 15 16 16 16 14 13 12 12 13 13 12 11 10 9 8 8 7 7 7 7 7 7 7 7 7 7 7 7 7 7 7 7 7 7 7 7 7 7 7 7
13 14 15 15 16 16 16 16 15 14 13 13 14 14 13 11 10 9 8 7 7 7 7 7 7 7 6 6 6 6 6 6 6 6 7 6 6 6 7 7 7 7 7 7
12 14 15 15 16 16 16 16 16 15 15 14 14 14 12 10 9 8 8 7 7 7 7 7 7 6 6 6 6 6 6 6 6 6 6 6 6 6 6 6 6 6 6 6
12 13 14 13 14 16 15 16 16 16 15 15 14 13 10 9 9 8 8 7 7 7 7 7 6 6 6 6 6 6 6 6 6 6 6 6 6 6 6 6 6 5 5 5
11 12 11 12 14 16 15 15 15 15 15 14 13 11 10 10 9 8 8 8 8 7 7 7 6 6 6 6 6 5 5 5 5 5 5 5 5 5 5 5 5 5 5 5
11 11 11 11 13 14 15 15 15 15 14 13 11 10 9 8 8 8 8 8 8 8 7 7 6 6 6 6 5 5 5 5 5 5 5 5 5 5 5 5 5 5 5 5
10 11 11 11 14 14 15 15 15 15 14 12 11 9 8 9 9 8 8 8 8 7 7 7 6 6 6 5 5 5 5 5 5 5 5 5 5 5 5 5 5 5 5 5
11 11 11 11 12 13 14 14 15 14 13 12 11 10 9 9 9 9 8 8 7 7 7 6 6 6 5 5 5 5 5 5 5 5 5 5 5 5 5 5 5 5 5 5
11 11 11 11 12 13 13 13 13 12 12 11 10 10 9 9 9 8 8 7 7 7 6 6 6 6 5 5 5 5 5 5 5 5 5 5 5 5 5 5 5 5 5 5
10 10 10 11 11 12 12 12 12 12 11 11 11 10 10 9 8 8 7 7 7 6 6 6 6 5 5 5 5 5 5 5 5 5 5 5 5 5 5 5 5 5 5 5
10 10 10 10 11 11 12 12 12 12 12 12 12 11 10 9 8 8 7 7 6 6 6 6 6 5 5 5 5 5 5 5 5 5 5 5 5 5 5 5 5 5 5 5
9 10 10 10 11 11 12 12 12 12 12 12 11 10 10 9 8 8 7 7 6 6 6 6 6 5 5 5 5 5 5 5 5 5 5 5 5 5 5 5 5 5 5 5
9 10 10 10 11 10 11 11 11 12 12 11 11 10 9 9 8 7 7 7 6 6 6 6 5 5 5 5 5 5 5 5 5 5 5 5 5 5 5 5 5 5 5 5

GEFSCGP_850_meantemp_096.txt.gz
Temperature
23 24 24 25 25 25 25 25 25 25 25 25 25 24 22 21 21 20 19 19 17 16 14 14 14 14 14 15 15 16 16 16 16 16 16 16 16 16 16 16 16 16 16 16
23 24 24 24 24 24 25 25 25 24 24 24 24 23 22 21 20 19 18 17 17 16 14 13 13 13 13 14 14 15 15 15 15 16 16 16 15 15 15 15 15 15 15 16
24 24 24 24 24 24 24 25 25 24 24 24 24 23 22 21 19 18 17 16 15 14 14 13 12 12 13 13 13 14 14 14 15 15 15 15 15 15 15 15 15 15 15 15
24 24 24 24 24 24 24 25 25 24 24 24 24 24 23 21 20 19 17 16 15 14 13 12 12 11 12 12 12 13 13 14 14 14 14 14 14 14 14 14 14 14 14 15
24 24 24 24 24 25 25 25 25 25 25 24 24 24 24 22 21 20 17 16 14 13 12 11 11 11 11 11 12 12 13 13 13 13 14 13 13 13 13 13 13 14 14 14
24 24 24 24 24 24 25 24 24 25 25 23 24 24 24 23 22 21 18 15 14 13 12 11 10 10 10 10 11 12 12 12 13 13 13 13 13 13 13 13 13 13 13 13
23 24 25 24 24 24 24 24 23 23 23 23 24 23 23 22 21 21 18 15 13 12 12 11 10 10 10 10 10 11 11 12 12 12 12 12 12 12 12 12 12 12 12 12
23 23 24 25 25 24 24 24 23 22 23 24 23 23 23 21 19 18 17 14 13 12 11 11 10 9 9 10 10 10 10 11 11 11 11 11 12 11 11 11 11 12 12 12
23 23 24 24 25 25 24 24 25 23 23 23 23 23 21 18 18 17 15 14 13 12 11 10 9 9 9 9 9 9 10 10 10 10 10 10 10 10 11 11 11 11 11 11
23 23 24 24 24 24 25 24 24 23 22 22 23 23 23 20 19 17 15 13 12 11 10 9 9 9 8 8 8 9 9 9 9 9 9 9 9 10 10 10 10 10 10 10
22 22 23 24 23 24 23 23 23 23 23 22 21 22 23 22 20 18 16 13 12 11 10 9 8 8 8 8 8 8 8 8 8 8 9 9 9 9 9 9 9 9 9 10
22 22 22 23 23 23 24 23 23 22 22 22 22 22 20 20 20 18 16 13 11 10 9 9 8 8 8 8 8 7 8 8 8 8 8 8 8 8 8 8 8 9 9 9
21 21 21 22 22 23 23 23 23 22 22 21 21 22 19 19 18 16 14 12 10 9 9 8 8 8 7 7 7 7 7 7 7 7 7 8 8 8 8 8 8 8 8 8
19 21 21 21 21 22 22 22 22 22 22 21 22 22 20 19 17 15 13 11 9 9 8 8 7 7 7 7 7 7 7 7 7 7 7 7 7 7 7 7 7 7 7 7
20 20 21 22 22 22 22 22 22 22 22 22 22 22 21 19 17 14 12 10 9 8 8 8 7 7 7 7 7 7 7 6 6 6 6 6 6 6 7 6 6 7 7 7
19 20 20 21 22 22 22 22 22 22 22 22 22 21 19 17 15 13 11 10 9 8 8 7 7 7 7 6 6 6 6 6 6 6 6 6 6 6 6 6 6 6 6 6
19 19 19 20 21 21 21 22 22 22 22 21 20 20 18 16 14 12 10 9 9 8 8 7 7 7 6 6 6 6 6 6 6 6 6 6 6 6 6 6 6 6 6 6
17 18 19 20 20 19 21 21 21 21 21 20 19 18 17 14 13 11 10 9 8 8 7 7 7 6 6 6 6 6 6 6 6 6 6 5 5 5 5 5 5 5 5 5
16 17 19 19 19 20 20 20 20 20 19 18 18 16 14 12 11 10 9 9 8 8 7 7 7 6 6 6 6 6 6 6 6 6 5 5 5 5 5 5 5 5 5 5
16 16 18 18 18 18 19 19 19 19 18 17 16 15 13 13 14 12 9 8 8 7 7 7 6 6 6 6 6 6 6 6 6 6 5 5 5 5 5 5 5 5 5 5
17 17 17 18 18 19 17 18 19 18 16 15 15 14 13 14 14 11 9 8 7 7 7 6 6 6 6 6 6 6 6 6 5 5 5 5 5 5 5 5 5 5 5 5
17 17 17 18 18 17 16 17 17 15 15 14 14 13 13 11 10 9 8 7 7 7 6 6 6 6 6 6 6 6 6 5 5 5 5 5 5 5 5 5 5 5 5 5
16 16 16 17 16 15 14 14 14 13 14 13 13 12 11 10 9 8 7 7 7 6 6 6 6 6 6 5 6 6 5 5 5 5 5 5 5 5 5 5 5 5 5 6
16 16 16 16 17 15 14 13 13 13 13 13 12 11 11 10 9 8 7 7 6 6 6 6 6 6 6 5 6 6 5 5 5 5 5 5 5 5 5 5 5 5 6 6
15 15 16 16 16 15 14 13 12 12 12 12 11 11 10 9 8 8 7 7 6 6 6 6 6 6 6 6 5 5 5 5 5 5 5 5 5 5 5 5 5 5 5 5
15 15 15 15 14 14 13 12 12 11 11 11 10 10 9 9 8 8 7 7 6 6 6 6 6 6 6 6 6 5 5 5 5 5 5 5 5 5 5 5 5 5 5 5

GEFSCGP_850_meantemp_102.txt.gz
Temperature
25 25 25 26 27 27 27 27 27 28 29 28 28 26 25 26 26 25 24 22 21 19 17 17 16 16 15 15 16 16 16 17 17 17 17 17 16 16 16 16 16 16 16 16
25 25 27 28 28 28 28 27 27 27 29 28 27 27 27 27 26 25 24 22 20 19 17 16 16 15 15 15 15 15 15 16 16 16 16 16 16 16 16 16 16 16 16 16
24 26 28 27 27 27 27 27 27 26 27 28 27 26 25 25 25 24 23 22 20 19 17 16 15 14 14 14 14 14 15 15 15 15 15 15 15 15 15 15 15 15 15 16
25 27 27 27 27 27 26 27 27 27 26 26 26 23 23 22 23 23 22 21 20 18 17 16 15 14 13 13 13 14 14 14 14 15 15 15 15 15 15 15 15 15 15 15
26 27 27 26 27 27 26 28 27 27 27 26 25 23 21 21 21 22 22 20 19 18 16 15 14 13 13 12 13 13 13 13 13 14 14 14 14 14 14 14 14 14 14 14
27 28 28 27 28 28 27 27 27 26 26 23 23 23 21 20 20 21 21 20 18 17 16 15 14 13 12 12 12 12 12 13 13 13 13 13 13 13 13 13 13 13 13 13
26 27 28 28 27 27 27 25 23 22 21 21 22 22 22 22 22 21 20 19 18 17 15 14 14 13 12 11 11 11 11 12 12 12 12 12 12 12 12 12 12 12 13 13
24 24 26 27 26 26 25 25 22 20 20 20 20 21 21 24 23 22 20 19 17 16 15 14 13 12 11 11 11 11 11 11 11 11 11 11 11 11 11 11 11 12 12 12
23 23 26 27 27 27 25 25 24 23 22 20 20 21 21 22 22 21 20 18 17 16 15 14 12 12 11 10 10 10 10 10 10 10 10 10 10 10 10 10 11 11 11 11
24 23 25 26 27 27 27 26 24 23 21 20 20 19 19 19 20 20 19 18 16 15 14 13 12 11 11 10 10 9 10 9 10 9 9 9 9 9 10 10 10 10 10 10
24 23 24 25 25 25 26 26 25 24 24 22 20 19 19 18 19 19 19 18 16 15 14 13 12 11 10 10 9 9 9 9 9 9 9 9 9 9 9 9 9 9 9 10
24 24 23 24 26 26 26 25 25 23 23 23 22 19 20 19 19 19 19 17 16 14 13 12 11 11 10 10 9 9 9 9 8 8 8 8 8 8 8 8 9 9 9 9
23 22 21 22 22 23 23 24 24 24 24 23 22 20 20 19 19 18 17 16 15 14 13 12 11 10 10 9 9 9 8 8 8 8 8 8 8 8 8 8 8 8 8 8
22 22 21 20 20 20 21 23 24 24 23 22 22 20 19 18 18 17 16 15 14 13 12 11 10 10 9 9 9 8 8 8 8 8 7 7 7 7 7 7 7 8 8 8
22 22 22 22 22 22 22 23 23 23 24 23 23 21 19 18 17 16 15 14 13 13 12 11 10 9 9 9 8 8 8 8 8 7 7 7 7 7 7 7 7 7 7 7
22 21 21 21 23 23 23 23 23 23 24 24 23 21 20 18 17 16 14 13 13 12 11 10 9 9 8 8 8 8 7 7 7 7 7 7 7 7 7 7 7 7 7 7
21 20 20 20 22 22 21 22 22 22 22 22 21 20 19 17 16 15 14 13 12 11 11 10 9 8 8 8 8 7 7 7 7 7 7 7 7 7 7 7 6 6 6 6
19 19 20 20 21 19 21 22 22 21 21 20 19 19 18 17 15 14 14 13 12 11 10 9 9 8 8 8 7 7 7 7 7 7 7 7 6 6 6 6 6 6 6 6
20 19 19 20 19 19 20 20 20 20 18 19 18 17 16 15 14 13 12 12 11 10 9 9 8 8 8 7 7 7 7 7 7 7 7 6 6 6 6 6 6 6 6 6
21 20 19 19 18 18 18 20 20 20 17 18 17 16 16 15 15 13 11 11 10 9 9 8 8 8 7 7 7 7 7 7 7 7 6 6 6 6 6 6 6 6 6 6
19 19 18 19 18 18 18 20 21 18 16 17 16 16 15 15 14 12 11 10 9 9 8 8 8 7 7 7 7 7 7 7 7 7 6 6 6 6 6 6 6 6 6 6
19 18 18 18 17 16 17 18 17 16 17 16 16 15 14 13 12 10 10 9 9 8 8 8 8 7 7 7 7 7 7 7 7 6 6 6 6 6 6 6 6 6 6 6
19 18 18 17 16 16 16 17 16 16 16 16 15 14 13 12 11 10 9 9 8 8 8 8 7 7 7 7 7 7 7 7 6 6 6 6 6 6 6 6 6 6 6 7
19 19 18 17 16 16 16 16 16 15 15 15 14 13 12 11 10 10 9 8 8 8 7 7 7 7 7 7 7 7 7 6 6 6 6 6 6 6 6 6 6 6 6 7
17 18 17 17 16 16 16 15 15 15 15 14 14 13 12 11 10 10 9 8 8 8 7 7 7 7 7 7 7 7 6 6 6 6 6 6 6 6 6 6 6 6 7 6
17 17 16 16 16 16 15 15 15 14 14 14 13 12 12 11 10 9 9 8 8 8 7 7 7 7 7 7 7 7 6 6 6 6 6 6 6 6 6 6 6 6 6 6

GEFSCGP_850_meantemp_108.txt.gz
Temperature
22 19 18 19 19 20 21 21 21 22 22 21 19 18 18 17 17 17 16 15 15 15 15 15 15 15 15 15 16 16 16 16 16 16 16 16 16 16 16 16 16 16 16 16
19 19 20 21 21 22 21 21 21 21 22 21 18 18 18 17 17 17 16 15 15 14 14 14 14 14 15 15 15 15 16 16 16 16 16 16 16 16 16 15 16 16 16 16
19 20 22 22 22 22 22 21 21 21 21 21 19 18 17 17 17 17 16 15 15 14 14 14 14 14 14 14 14 15 15 15 15 15 15 15 15 15 15 15 15 15 15 15
20 21 23 23 22 22 21 22 22 22 20 19 19 17 16 16 16 16 15 15 14 14 14 13 13 13 13 13 13 14 14 14 14 14 14 14 14 14 14 14 14 15 15 15
20 22 23 22 23 23 22 22 22 21 19 18 17 16 16 16 16 15 15 15 14 14 13 13 13 13 12 12 13 13 13 13 13 14 14 14 13 13 13 13 13 14 14 14
21 23 23 23 24 24 23 21 19 17 16 17 17 17 16 15 16 16 15 14 13 13 13 13 12 12 12 12 12 12 12 12 12 13 13 13 13 13 13 13 13 13 13 13
21 22 23 23 23 22 21 18 17 17 15 16 16 16 16 16 16 16 15 14 13 13 13 12 12 12 12 11 11 11 11 12 12 12 12 12 12 12 12 12 12 12 12 12
19 19 21 22 22 21 20 18 17 17 16 16 16 16 15 16 16 16 15 14 13 13 12 12 12 12 11 11 10 11 11 11 11 11 11 11 11 11 11 11 11 11 11 11
19 19 22 23 23 22 20 18 17 16 16 15 15 15 15 15 15 14 14 13 12 12 12 12 11 11 11 10 10 10 10 10 10 10 10 10 10 10 10 10 10 10 10 11
19 20 21 22 22 20 20 18 16 16 16 15 16 15 15 15 14 14 13 12 12 12 12 11 11 11 10 10 9 9 9 9 9 9 9 9 9 9 9 9 9 10 10 10
19 18 19 20 19 19 19 18 16 15 15 15 15 15 16 15 14 13 13 12 12 12 11 11 11 10 10 9 9 9 9 9 9 9 9 9 9 9 9 9 9 9 9 9
18 16 17 18 19 20 19 18 17 16 16 15 15 15 16 15 14 13 12 12 12 11 11 11 10 10 9 9 9 9 9 9 8 8 8 8 8 8 8 8 8 8 9 9
18 16 16 17 17 18 18 19 17 15 14 14 15 15 14 14 13 13 12 12 11 11 11 10 10 9 9 9 8 8 8 8 8 8 8 8 8 8 8 8 8 8 8 8
18 16 16 16 16 17 18 18 18 16 14 15 15 15 14 13 12 12 12 11 11 11 10 10 10 9 9 8 8 8 8 8 8 8 8 7 7 7 7 7 7 7 8 8
16 16 17 17 18 18 18 18 18 17 16 16 16 15 14 13 12 12 11 11 10 10 10 10 9 9 9 8 8 8 8 8 7 7 7 7 7 7 7 7 7 7 7 7
14 16 16 17 18 18 17 17 17 17 17 16 15 14 13 12 12 11 11 11 10 10 10 9 9 9 8 8 8 8 7 7 7 7 7 7 7 7 7 7 7 7 7 7
14 15 15 15 17 17 15 15 16 15 15 15 14 13 12 12 11 11 11 10 10 10 9 9 9 9 8 8 8 8 7 7 7 7 7 7 7 7 7 7 7 7 7 7
14 14 13 14 15 15 15 15 15 15 14 14 13 13 12 12 11 11 11 11 10 10 9 9 9 9 8 8 8 7 7 7 7 7 7 7 7 6 6 6 6 6 6 7
14 14 14 13 14 15 15 15 15 14 13 13 13 12 11 11 11 10 11 11 10 10 9 9 9 8 8 8 7 7 7 7 7 7 7 6 6 6 6 6 6 6 6 6
14 13 13 13 14 14 14 15 15 14 13 13 12 11 11 11 10 9 10 10 10 9 9 9 8 8 8 7 7 7 7 7 7 6 6 6 6 6 6 6 6 6 6 6
14 13 13 13 13 14 14 15 15 14 12 13 12 12 12 11 10 10 10 10 9 9 9 8 8 8 7 7 7 7 7 7 6 6 6 6 6 6 6 6 6 6 6 6
13 13 13 12 13 13 14 14 13 12 13 13 13 12 12 11 10 10 10 9 9 8 8 8 8 7 7 7 7 7 7 7 6 6 6 6 6 6 6 6 6 6 6 6
12 12 11 12 12 13 14 13 14 14 13 13 12 12 11 10 10 9 9 9 8 8 8 7 7 7 7 7 7 7 7 6 6 6 6 6 6 6 6 6 6 6 6 6
13 13 12 12 12 13 13 14 14 14 13 13 12 12 11 10 10 9 9 8 8 8 8 7 7 7 7 7 7 7 7 6 6 6 6 6 6 6 6 6 6 6 6 6
13 13 12 12 12 13 14 14 13 13 13 12 12 11 11 10 9 9 8 8 8 8 7 7 7 7 7 7 7 7 6 6 6 6 6 6 6 6 6 6 6 6 6 6
12 12 11 11 13 12 13 13 13 13 12 12 11 10 10 10 9 9 8 8 8 8 7 7 7 7 7 7 7 6 6 6 6 6 6 6 6 6 6 6 6 6 6 6

GEFSCGP_850_meantemp_114.txt.gz
Temperature
18 16 17 17 18 19 19 19 19 18 17 16 15 15 15 15 15 14 14 14 14 14 14 14 14 15 15 15 15 15 15 15 15 15 16 16 16 16 16 16 16 16 16 16
16 17 18 18 18 19 19 19 18 17 17 16 15 15 15 15 15 14 14 14 14 14 14 14 14 14 14 14 14 14 14 15 15 15 15 15 15 15 15 15 15 15 15 15
19 19 19 19 19 19 19 19 18 17 16 16 16 15 15 15 15 15 14 14 14 13 13 13 13 13 13 14 14 14 14 14 14 15 15 15 15 15 15 15 15 15 14 14
18 18 19 20 20 20 19 19 19 18 16 15 16 15 15 15 14 14 14 14 14 13 13 13 13 13 13 13 13 13 13 14 14 14 14 14 14 14 14 14 14 14 14 14
19 19 20 20 20 20 19 18 18 17 15 15 15 15 15 15 15 14 14 14 13 13 13 13 13 13 13 12 13 13 13 13 13 13 14 13 13 13 13 13 13 13 13 13
19 19 20 20 20 19 18 17 16 14 14 15 15 15 15 14 15 14 14 13 13 13 13 13 12 12 12 12 12 12 13 13 12 12 13 13 13 13 12 12 12 12 12 13
19 20 20 20 20 19 18 17 16 16 15 15 15 15 15 15 15 15 14 13 13 13 12 12 12 12 12 12 12 12 12 12 12 12 12 12 12 12 12 12 12 12 12 12
18 18 19 20 20 19 18 17 16 16 16 14 15 15 15 14 14 15 14 13 12 12 12 12 12 12 11 11 11 11 11 11 11 11 11 11 10 10 10 10 11 11 11 11
18 18 19 19 19 18 18 15 15 14 14 14 14 15 14 13 13 13 12 12 11 12 12 12 11 11 11 11 11 10 11 11 10 10 10 10 10 10 10 10 10 10 10 10
18 19 19 19 19 17 17 14 13 14 15 15 15 15 14 14 13 12 12 11 11 11 11 11 11 11 10 10 10 10 10 10 10 9 9 9 9 9 9 9 9 9 9 9
18 17 18 18 17 17 17 16 13 12 14 14 15 15 15 14 13 12 11 11 11 11 11 11 10 10 10 10 10 10 9 9 9 9 9 9 8 8 8 8 9 9 9 9
16 15 16 17 17 17 17 16 14 15 14 13 14 14 14 13 13 12 11 11 11 11 10 10 10 10 9 9 9 9 9 9 8 8 8 8 8 8 8 8 8 8 8 8
15 15 15 16 16 16 16 16 14 13 12 12 13 14 13 12 12 12 11 11 10 10 10 10 9 9 9 9 9 9 9 8 8 8 8 8 8 8 7 7 8 8 8 8
15 14 14 15 15 15 16 16 15 14 13 13 14 14 13 12 11 11 10 10 10 10 10 9 9 9 9 9 9 8 8 8 8 8 7 7 7 7 7 7 7 7 7 7
14 14 15 15 16 16 15 15 15 14 14 14 14 14 13 12 11 11 10 10 9 9 9 9 9 9 8 8 8 8 8 8 8 7 7 7 7 7 7 7 7 7 7 7
12 14 15 15 16 15 15 14 14 14 14 14 14 13 12 11 11 10 10 9 9 9 9 9 9 9 8 8 8 8 8 7 7 7 7 7 7 7 7 7 6 7 7 7
12 13 13 14 15 15 14 14 14 14 13 13 13 12 11 11 10 10 10 10 9 9 9 9 9 9 8 8 8 8 7 7 7 7 7 7 7 6 6 6 6 6 6 6
12 11 11 12 14 14 14 14 13 13 13 12 12 11 11 11 10 10 10 10 9 9 9 9 9 8 8 8 7 7 7 7 7 7 7 6 6 6 6 6 6 6 6 6
11 12 11 11 13 14 14 14 13 13 12 12 11 11 10 10 10 9 10 10 10 9 9 9 8 8 8 7 7 7 7 7 7 6 6 6 6 6 6 6 6 6 6 6
11 11 11 12 13 13 13 14 13 13 12 12 11 10 10 10 9 9 9 9 9 9 9 8 8 8 8 7 7 7 7 6 6 6 6 6 6 6 6 6 6 6 6 6
11 11 11 11 12 12 13 13 13 13 12 11 11 11 10 10 9 10 9 9 9 9 8 8 8 8 7 7 7 7 7 6 6 6 6 6 6 6 6 6 6 6 6 6
11 11 11 10 12 12 12 12 12 11 11 11 11 11 10 10 10 9 9 9 9 8 8 8 7 7 7 7 7 7 6 6 6 6 6 6 6 6 6 6 6 6 6 6
10 10 9 10 11 11 12 12 12 12 12 12 11 11 11 10 9 9 9 8 8 8 7 7 7 7 7 7 7 7 6 6 6 6 6 6 6 6 6 6 6 6 6 6
11 10 10 10 11 11 12 12 12 13 12 12 11 11 11 10 9 9 8 8 8 8 7 7 7 7 7 7 7 6 6 6 6 6 6 6 6 6 6 6 6 6 6 6
11 10 10 10 11 12 12 12 12 12 12 11 11 11 10 10 9 9 8 8 8 7 7 7 7 7 7 7 6 6 6 6 6 6 6 6 6 6 6 6 6 6 6 6
10 10 10 10 11 11 12 12 12 12 11 11 11 10 10 10 9 9 8 8 8 7 7 7 7 7 7 6 6 6 6 6 6 6 6 6 6 6 6 6 6 6 6 6